Wetterdaten: Donnerstag, 21.12.2017
Datum Zeit Temp. Aussen Temp. o. S. +5cm Feuchte Auss BlattFeu 1 Luftdruck Regen Sonnenschein Regendauer Solar Windben Empfang
21.12.2017 00:00 7,4 C 7,2 C 6,1 C 100 % 15 lf 1033,3 hPa 0,0 l/m 0 min 0 min 0 W/m 6,8 km/h (2 Bft) 91,49 %
21.12.2017 00:02 7,4 C 7,2 C 6,1 C 100 % 15 lf 1033,2 hPa 0,0 l/m 0 min 0 min 0 W/m 9,0 km/h (2 Bft) 100,00 %
21.12.2017 00:04 7,4 C 7,2 C 6,1 C 100 % 15 lf 1033,2 hPa 0,0 l/m 0 min 0 min 0 W/m 11,3 km/h (2 Bft) 95,74 %
21.12.2017 00:08 7,4 C 7,2 C 6,1 C 100 % 15 lf 1033,3 hPa 0,0 l/m 0 min 0 min 0 W/m 13,5 km/h (3 Bft) 93,41 %
21.12.2017 00:10 7,4 C 7,2 C 6,1 C 100 % 15 lf 1033,3 hPa 0,0 l/m 0 min 0 min 0 W/m 13,5 km/h (3 Bft) 91,49 %
21.12.2017 00:12 7,4 C 7,2 C 6,1 C 100 % 15 lf 1033,2 hPa 0,0 l/m 0 min 0 min 0 W/m 11,3 km/h (2 Bft) 91,49 %
21.12.2017 00:14 7,4 C 7,2 C 6,1 C 100 % 15 lf 1033,2 hPa 0,0 l/m 0 min 0 min 0 W/m 15,8 km/h (3 Bft) 91,49 %
21.12.2017 00:16 7,4 C 7,2 C 6,1 C 100 % 15 lf 1033,1 hPa 0,0 l/m 0 min 0 min 0 W/m 13,5 km/h (3 Bft) 91,49 %
21.12.2017 00:18 7,4 C 7,2 C 6,1 C 100 % 15 lf 1033,1 hPa 0,0 l/m 0 min 0 min 0 W/m 15,8 km/h (3 Bft) 89,36 %
21.12.2017 00:20 7,4 C 7,2 C 6,1 C 100 % 15 lf 1033,1 hPa 0,0 l/m 0 min 0 min 0 W/m 15,8 km/h (3 Bft) 89,66 %
21.12.2017 00:22 7,4 C 7,2 C 6,1 C 100 % 15 lf 1033,1 hPa 0,0 l/m 0 min 0 min 0 W/m 9,0 km/h (2 Bft) 94,29 %
21.12.2017 00:24 7,4 C 7,2 C 6,1 C 100 % 15 lf 1033,1 hPa 0,0 l/m 0 min 0 min 0 W/m 11,3 km/h (2 Bft) 93,62 %
21.12.2017 00:26 7,4 C 7,2 C 6,1 C 100 % 15 lf 1033,1 hPa 0,0 l/m 0 min 0 min 0 W/m 11,3 km/h (2 Bft) 95,74 %
21.12.2017 00:28 7,5 C 7,2 C 6,1 C 100 % 15 lf 1033,2 hPa 0,0 l/m 0 min 2 min 0 W/m 15,8 km/h (3 Bft) 91,49 %
21.12.2017 00:30 7,5 C 7,2 C 6,1 C 100 % 15 lf 1033,2 hPa 0,0 l/m 0 min 2 min 0 W/m 20,3 km/h (4 Bft) 95,74 %
21.12.2017 00:32 7,5 C 7,2 C 6,1 C 100 % 15 lf 1033,2 hPa 0,0 l/m 0 min 0 min 0 W/m 9,0 km/h (2 Bft) 97,83 %
21.12.2017 00:34 7,4 C 7,2 C 6,1 C 100 % 15 lf 1033,1 hPa 0,0 l/m 0 min 0 min 0 W/m 11,3 km/h (2 Bft) 95,74 %
21.12.2017 00:36 7,4 C 7,2 C 6,1 C 100 % 15 lf 1033,1 hPa 0,0 l/m 0 min 0 min 0 W/m 11,3 km/h (2 Bft) 95,74 %
21.12.2017 00:38 7,4 C 7,2 C 6,1 C 100 % 15 lf 1033,0 hPa 0,0 l/m 0 min 2 min 0 W/m 11,3 km/h (2 Bft) 93,62 %
21.12.2017 00:40 7,4 C 7,2 C 6,1 C 100 % 15 lf 1032,9 hPa 0,0 l/m 0 min 2 min 0 W/m 15,8 km/h (3 Bft) 95,74 %
21.12.2017 00:42 7,5 C 7,2 C 6,1 C 100 % 15 lf 1032,9 hPa 0,0 l/m 0 min 0 min 0 W/m 11,3 km/h (2 Bft) 91,49 %
21.12.2017 00:44 7,5 C 7,2 C 6,1 C 100 % 15 lf 1033,0 hPa 0,0 l/m 0 min 0 min 0 W/m 11,3 km/h (2 Bft) 93,48 %
21.12.2017 00:46 7,4 C 7,2 C 6,1 C 100 % 15 lf 1033,1 hPa 0,0 l/m 0 min 0 min 0 W/m 9,0 km/h (2 Bft) 95,74 %
21.12.2017 00:48 7,4 C 7,2 C 6,1 C 100 % 15 lf 1033,2 hPa 0,0 l/m 0 min 0 min 0 W/m 9,0 km/h (2 Bft) 91,49 %
21.12.2017 00:50 7,4 C 7,2 C 6,1 C 100 % 15 lf 1033,2 hPa 0,0 l/m 0 min 0 min 0 W/m 11,3 km/h (2 Bft) 95,74 %
21.12.2017 00:52 7,4 C 7,2 C 6,1 C 100 % 15 lf 1033,2 hPa 0,0 l/m 0 min 0 min 0 W/m 11,3 km/h (2 Bft) 91,49 %
21.12.2017 00:54 7,4 C 7,2 C 6,1 C 100 % 15 lf 1033,2 hPa 0,0 l/m 0 min 0 min 0 W/m 9,0 km/h (2 Bft) 95,65 %
21.12.2017 00:56 7,4 C 7,2 C 6,1 C 100 % 15 lf 1033,2 hPa 0,0 l/m 0 min 0 min 0 W/m 9,0 km/h (2 Bft) 97,87 %
21.12.2017 00:58 7,4 C 7,2 C 6,1 C 100 % 15 lf 1033,3 hPa 0,0 l/m 0 min 0 min 0 W/m 6,8 km/h (2 Bft) 97,87 %
21.12.2017 01:00 7,4 C 7,2 C 6,1 C 100 % 15 lf 1033,3 hPa 0,0 l/m 0 min 0 min 0 W/m 9,0 km/h (2 Bft) 95,74 %
21.12.2017 01:02 7,4 C 7,2 C 6,1 C 100 % 15 lf 1033,3 hPa 0,0 l/m 0 min 0 min 0 W/m 9,0 km/h (2 Bft) 95,74 %
21.12.2017 01:04 7,4 C 7,2 C 6,1 C 100 % 15 lf 1033,3 hPa 0,0 l/m 0 min 0 min 0 W/m 6,8 km/h (2 Bft) 97,87 %
21.12.2017 01:06 7,4 C 7,2 C 6,1 C 100 % 15 lf 1033,3 hPa 0,0 l/m 0 min 0 min 0 W/m 6,8 km/h (2 Bft) 97,83 %
21.12.2017 01:08 7,4 C 7,2 C 6,1 C 100 % 15 lf 1033,2 hPa 0,0 l/m 0 min 0 min 0 W/m 13,5 km/h (3 Bft) 97,87 %
21.12.2017 01:10 7,4 C 7,2 C 6,1 C 100 % 15 lf 1033,2 hPa 0,0 l/m 0 min 0 min 0 W/m 9,0 km/h (2 Bft) 97,87 %
21.12.2017 01:12 7,4 C 7,2 C 6,1 C 100 % 15 lf 1033,1 hPa 0,0 l/m 0 min 0 min 0 W/m 11,3 km/h (2 Bft) 95,74 %
21.12.2017 01:14 7,4 C 7,2 C 6,1 C 100 % 15 lf 1033,0 hPa 0,0 l/m 0 min 0 min 0 W/m 9,0 km/h (2 Bft) 100,00 %
21.12.2017 01:16 7,4 C 7,2 C 6,1 C 100 % 15 lf 1033,0 hPa 0,0 l/m 0 min 0 min 0 W/m 6,8 km/h (2 Bft) 100,00 %
21.12.2017 01:18 7,4 C 7,2 C 6,1 C 100 % 15 lf 1033,1 hPa 0,0 l/m 0 min 0 min 0 W/m 6,8 km/h (2 Bft) 97,83 %
21.12.2017 01:20 7,4 C 7,2 C 6,1 C 100 % 15 lf 1032,9 hPa 0,0 l/m 0 min 0 min 0 W/m 6,8 km/h (2 Bft) 97,87 %
21.12.2017 01:22 7,4 C 7,2 C 6,1 C 100 % 15 lf 1032,9 hPa 0,0 l/m 0 min 0 min 0 W/m 9,0 km/h (2 Bft) 100,00 %
21.12.2017 01:24 7,4 C 7,2 C 6,1 C 100 % 15 lf 1032,9 hPa 0,0 l/m 0 min 0 min 0 W/m 9,0 km/h (2 Bft) 97,87 %
21.12.2017 01:26 7,4 C 7,2 C 6,1 C 100 % 15 lf 1032,9 hPa 0,0 l/m 0 min 0 min 0 W/m 6,8 km/h (2 Bft) 97,87 %
21.12.2017 01:28 7,4 C 7,2 C 6,1 C 100 % 15 lf 1033,1 hPa 0,0 l/m 0 min 0 min 0 W/m 6,8 km/h (2 Bft) 100,00 %
21.12.2017 01:30 7,4 C 7,2 C 6,1 C 100 % 15 lf 1033,1 hPa 0,0 l/m 0 min 0 min 0 W/m 6,8 km/h (2 Bft) 91,30 %
21.12.2017 01:32 7,4 C 7,2 C 6,1 C 100 % 15 lf 1033,1 hPa 0,0 l/m 0 min 0 min 0 W/m 9,0 km/h (2 Bft) 97,87 %
21.12.2017 01:34 7,4 C 7,2 C 6,1 C 100 % 15 lf 1033,2 hPa 0,0 l/m 0 min 0 min 0 W/m 9,0 km/h (2 Bft) 100,00 %
21.12.2017 01:36 7,4 C 7,2 C 6,1 C 100 % 15 lf 1033,1 hPa 0,0 l/m 0 min 0 min 0 W/m 9,0 km/h (2 Bft) 95,74 %
21.12.2017 01:38 7,4 C 7,2 C 6,1 C 100 % 15 lf 1033,1 hPa 0,0 l/m 0 min 0 min 0 W/m 11,3 km/h (2 Bft) 95,74 %
21.12.2017 01:40 7,4 C 7,2 C 6,1 C 100 % 15 lf 1033,2 hPa 0,0 l/m 0 min 0 min 0 W/m 6,8 km/h (2 Bft) 100,00 %
21.12.2017 01:42 7,4 C 7,2 C 6,1 C 100 % 15 lf 1033,3 hPa 0,0 l/m 0 min 0 min 0 W/m 6,8 km/h (2 Bft) 95,65 %
21.12.2017 01:44 7,4 C 7,2 C 6,1 C 100 % 15 lf 1033,3 hPa 0,0 l/m 0 min 0 min 0 W/m 9,0 km/h (2 Bft) 97,87 %
21.12.2017 01:46 7,4 C 7,2 C 6,1 C 100 % 15 lf 1033,3 hPa 0,0 l/m 0 min 0 min 0 W/m 4,5 km/h (1 Bft) 93,62 %
21.12.2017 01:48 7,4 C 7,2 C 6,1 C 100 % 15 lf 1033,3 hPa 0,0 l/m 0 min 0 min 0 W/m 9,0 km/h (2 Bft) 97,87 %
21.12.2017 01:50 7,4 C 7,2 C 6,1 C 100 % 15 lf 1033,3 hPa 0,0 l/m 0 min 0 min 0 W/m 11,3 km/h (2 Bft) 97,87 %
21.12.2017 01:52 7,4 C 7,2 C 6,1 C 100 % 15 lf 1033,4 hPa 0,0 l/m 0 min 0 min 0 W/m 9,0 km/h (2 Bft) 97,83 %
21.12.2017 01:54 7,4 C 7,2 C 6,1 C 100 % 15 lf 1033,4 hPa 0,0 l/m 0 min 0 min 0 W/m 6,8 km/h (2 Bft) 95,74 %
21.12.2017 01:56 7,4 C 7,2 C 6,1 C 100 % 15 lf 1033,4 hPa 0,0 l/m 0 min 0 min 0 W/m 6,8 km/h (2 Bft) 93,62 %
21.12.2017 01:58 7,4 C 7,2 C 6,1 C 100 % 15 lf 1033,3 hPa 0,0 l/m 0 min 0 min 0 W/m 6,8 km/h (2 Bft) 95,74 %
21.12.2017 02:00 7,4 C 7,2 C 6,1 C 100 % 15 lf 1033,4 hPa 0,0 l/m 0 min 0 min 0 W/m 6,8 km/h (2 Bft) 97,87 %
21.12.2017 02:02 7,4 C 7,2 C 6,1 C 100 % 15 lf 1033,3 hPa 0,0 l/m 0 min 0 min 0 W/m 6,8 km/h (2 Bft) 97,87 %
21.12.2017 02:04 7,4 C 7,2 C 6,1 C 100 % 15 lf 1033,2 hPa 0,0 l/m 0 min 0 min 0 W/m 9,0 km/h (2 Bft) 91,30 %
21.12.2017 02:06 7,4 C 7,2 C 6,1 C 100 % 15 lf 1033,2 hPa 0,0 l/m 0 min 0 min 0 W/m 4,5 km/h (1 Bft) 100,00 %
21.12.2017 02:08 7,4 C 7,2 C 6,1 C 100 % 15 lf 1033,2 hPa 0,0 l/m 0 min 0 min 0 W/m 6,8 km/h (2 Bft) 97,87 %
21.12.2017 02:10 7,4 C 7,2 C 6,1 C 100 % 15 lf 1033,2 hPa 0,0 l/m 0 min 0 min 0 W/m 4,5 km/h (1 Bft) 97,87 %
21.12.2017 02:12 7,4 C 7,2 C 6,1 C 100 % 15 lf 1033,2 hPa 0,0 l/m 0 min 0 min 0 W/m 4,5 km/h (1 Bft) 95,74 %
21.12.2017 02:14 7,4 C 7,2 C 6,1 C 100 % 15 lf 1033,3 hPa 0,0 l/m 0 min 0 min 0 W/m 6,8 km/h (2 Bft) 97,87 %
21.12.2017 02:16 7,5 C 7,2 C 6,1 C 100 % 15 lf 1033,3 hPa 0,0 l/m 0 min 0 min 0 W/m 4,5 km/h (1 Bft) 95,65 %
21.12.2017 02:18 7,4 C 7,2 C 6,1 C 100 % 15 lf 1033,3 hPa 0,0 l/m 0 min 0 min 0 W/m 6,8 km/h (2 Bft) 97,87 %
21.12.2017 02:20 7,4 C 7,2 C 6,1 C 100 % 15 lf 1033,3 hPa 0,0 l/m 0 min 0 min 0 W/m 6,8 km/h (2 Bft) 89,36 %
21.12.2017 02:22 7,4 C 7,2 C 6,1 C 100 % 15 lf 1033,3 hPa 0,0 l/m 0 min 0 min 0 W/m 6,8 km/h (2 Bft) 97,87 %
21.12.2017 02:24 7,4 C 7,2 C 6,1 C 100 % 15 lf 1033,3 hPa 0,0 l/m 0 min 0 min 0 W/m 6,8 km/h (2 Bft) 97,87 %
21.12.2017 02:26 7,4 C 7,2 C 6,1 C 100 % 15 lf 1033,3 hPa 0,0 l/m 0 min 0 min 0 W/m 6,8 km/h (2 Bft) 93,62 %
21.12.2017 02:28 7,4 C 7,2 C 6,1 C 100 % 15 lf 1033,3 hPa 0,0 l/m 0 min 0 min 0 W/m 6,8 km/h (2 Bft) 97,83 %
21.12.2017 02:30 7,4 C 7,2 C 6,1 C 100 % 15 lf 1033,2 hPa 0,0 l/m 0 min 0 min 0 W/m 6,8 km/h (2 Bft) 97,87 %
21.12.2017 02:32 7,4 C 7,2 C 6,1 C 100 % 15 lf 1033,3 hPa 0,0 l/m 0 min 0 min 0 W/m 9,0 km/h (2 Bft) 95,74 %
21.12.2017 02:34 7,4 C 7,2 C 6,1 C 100 % 15 lf 1033,5 hPa 0,0 l/m 0 min 0 min 0 W/m 4,5 km/h (1 Bft) 97,87 %
21.12.2017 02:36 7,4 C 7,2 C 6,1 C 100 % 15 lf 1033,4 hPa 0,0 l/m 0 min 0 min 0 W/m 6,8 km/h (2 Bft) 95,74 %
21.12.2017 02:38 7,4 C 7,2 C 6,1 C 100 % 15 lf 1033,4 hPa 0,0 l/m 0 min 0 min 0 W/m 9,0 km/h (2 Bft) 97,87 %
21.12.2017 02:40 7,4 C 7,2 C 6,1 C 100 % 15 lf 1033,3 hPa 0,0 l/m 0 min 0 min 0 W/m 9,0 km/h (2 Bft) 95,65 %
21.12.2017 02:42 7,4 C 7,2 C 6,1 C 100 % 15 lf 1033,3 hPa 0,0 l/m 0 min 0 min 0 W/m 11,3 km/h (2 Bft) 95,74 %
21.12.2017 02:44 7,4 C 7,2 C 6,1 C 100 % 15 lf 1033,3 hPa 0,0 l/m 0 min 0 min 0 W/m 9,0 km/h (2 Bft) 95,74 %
21.12.2017 02:46 7,4 C 7,2 C 6,1 C 100 % 15 lf 1033,4 hPa 0,0 l/m 0 min 0 min 0 W/m 6,8 km/h (2 Bft) 95,74 %
21.12.2017 02:48 7,4 C 7,2 C 6,1 C 100 % 15 lf 1033,5 hPa 0,0 l/m 0 min 0 min 0 W/m 6,8 km/h (2 Bft) 95,74 %
21.12.2017 02:50 7,4 C 7,2 C 6,1 C 100 % 15 lf 1033,5 hPa 0,0 l/m 0 min 0 min 0 W/m 6,8 km/h (2 Bft) 97,87 %
21.12.2017 02:52 7,4 C 7,2 C 6,1 C 100 % 15 lf 1033,5 hPa 0,0 l/m 0 min 0 min 0 W/m 13,5 km/h (3 Bft) 97,83 %
21.12.2017 02:54 7,4 C 7,2 C 6,1 C 100 % 15 lf 1033,5 hPa 0,0 l/m 0 min 0 min 0 W/m 9,0 km/h (2 Bft) 93,62 %
21.12.2017 02:56 7,4 C 7,2 C 6,1 C 100 % 15 lf 1033,5 hPa 0,0 l/m 0 min 0 min 0 W/m 9,0 km/h (2 Bft) 95,74 %
21.12.2017 02:58 7,4 C 7,2 C 6,1 C 100 % 15 lf 1033,5 hPa 0,0 l/m 0 min 0 min 0 W/m 9,0 km/h (2 Bft) 93,62 %
21.12.2017 03:00 7,4 C 7,2 C 6,1 C 100 % 15 lf 1033,4 hPa 0,0 l/m 0 min 0 min 0 W/m 6,8 km/h (2 Bft) 95,74 %
21.12.2017 03:02 7,4 C 7,2 C 6,1 C 100 % 15 lf 1033,4 hPa 0,0 l/m 0 min 0 min 0 W/m 11,3 km/h (2 Bft) 97,83 %
21.12.2017 03:04 7,4 C 7,2 C 6,1 C 100 % 15 lf 1033,4 hPa 0,0 l/m 0 min 0 min 0 W/m 11,3 km/h (2 Bft) 97,87 %
21.12.2017 03:06 7,4 C 7,2 C 6,1 C 100 % 15 lf 1033,5 hPa 0,0 l/m 0 min 0 min 0 W/m 9,0 km/h (2 Bft) 97,87 %
21.12.2017 03:08 7,4 C 7,2 C 6,1 C 100 % 15 lf 1033,4 hPa 0,0 l/m 0 min 0 min 0 W/m 9,0 km/h (2 Bft) 91,49 %
21.12.2017 03:10 7,4 C 7,2 C 6,1 C 100 % 15 lf 1033,3 hPa 0,0 l/m 0 min 0 min 0 W/m 9,0 km/h (2 Bft) 93,62 %
21.12.2017 03:12 7,4 C 7,2 C 6,1 C 100 % 15 lf 1033,3 hPa 0,0 l/m 0 min 0 min 0 W/m 9,0 km/h (2 Bft) 95,74 %
21.12.2017 03:14 7,4 C 7,2 C 6,1 C 100 % 15 lf 1033,3 hPa 0,0 l/m 0 min 0 min 0 W/m 13,5 km/h (3 Bft) 97,83 %
21.12.2017 03:16 7,4 C 7,2 C 6,1 C 100 % 15 lf 1033,3 hPa 0,0 l/m 0 min 0 min 0 W/m 9,0 km/h (2 Bft) 93,62 %
21.12.2017 03:18 7,4 C 7,2 C 6,1 C 100 % 15 lf 1033,2 hPa 0,0 l/m 0 min 0 min 0 W/m 11,3 km/h (2 Bft) 95,74 %
21.12.2017 03:20 7,4 C 7,2 C 6,1 C 100 % 15 lf 1033,3 hPa 0,0 l/m 0 min 0 min 0 W/m 11,3 km/h (2 Bft) 91,49 %
21.12.2017 03:22 7,4 C 7,2 C 6,1 C 100 % 15 lf 1033,2 hPa 0,0 l/m 0 min 0 min 0 W/m 13,5 km/h (3 Bft) 95,74 %
21.12.2017 03:24 7,4 C 7,2 C 6,1 C 100 % 15 lf 1033,2 hPa 0,0 l/m 0 min 0 min 0 W/m 11,3 km/h (2 Bft) 97,87 %
21.12.2017 03:26 7,4 C 7,2 C 6,1 C 100 % 15 lf 1033,2 hPa 0,0 l/m 0 min 0 min 0 W/m 9,0 km/h (2 Bft) 97,83 %
21.12.2017 03:28 7,4 C 7,2 C 6,1 C 100 % 15 lf 1033,3 hPa 0,0 l/m 0 min 0 min 0 W/m 18,0 km/h (3 Bft) 91,49 %
21.12.2017 03:30 7,4 C 7,2 C 6,1 C 100 % 15 lf 1033,3 hPa 0,0 l/m 0 min 2 min 0 W/m 13,5 km/h (3 Bft) 95,74 %
21.12.2017 03:32 7,4 C 7,2 C 6,1 C 100 % 15 lf 1033,4 hPa 0,0 l/m 0 min 0 min 0 W/m 6,8 km/h (2 Bft) 97,87 %
21.12.2017 03:34 7,4 C 7,2 C 6,1 C 100 % 15 lf 1033,4 hPa 0,0 l/m 0 min 0 min 0 W/m 13,5 km/h (3 Bft) 97,87 %
21.12.2017 03:36 7,4 C 7,2 C 6,1 C 100 % 15 lf 1033,3 hPa 0,0 l/m 0 min 0 min 0 W/m 9,0 km/h (2 Bft) 95,74 %
21.12.2017 03:38 7,4 C 7,2 C 6,1 C 100 % 15 lf 1033,3 hPa 0,0 l/m 0 min 0 min 0 W/m 6,8 km/h (2 Bft) 97,83 %
21.12.2017 03:40 7,4 C 7,2 C 6,1 C 100 % 15 lf 1033,3 hPa 0,0 l/m 0 min 0 min 0 W/m 6,8 km/h (2 Bft) 95,74 %
21.12.2017 03:42 7,4 C 7,2 C 6,1 C 100 % 15 lf 1033,2 hPa 0,0 l/m 0 min 0 min 0 W/m 4,5 km/h (1 Bft) 95,74 %
21.12.2017 03:44 7,4 C 7,2 C 6,1 C 100 % 15 lf 1033,2 hPa 0,0 l/m 0 min 0 min 0 W/m 6,8 km/h (2 Bft) 97,87 %
21.12.2017 03:46 7,4 C 7,2 C 6,1 C 100 % 15 lf 1033,2 hPa 0,0 l/m 0 min 0 min 0 W/m 6,8 km/h (2 Bft) 93,62 %
21.12.2017 03:48 7,4 C 7,2 C 6,1 C 100 % 15 lf 1033,2 hPa 0,0 l/m 0 min 0 min 0 W/m 9,0 km/h (2 Bft) 93,62 %
21.12.2017 03:50 7,4 C 7,2 C 6,1 C 100 % 15 lf 1033,2 hPa 0,0 l/m 0 min 0 min 0 W/m 6,8 km/h (2 Bft) 95,65 %
21.12.2017 03:52 7,4 C 7,2 C 6,1 C 100 % 15 lf 1033,2 hPa 0,0 l/m 0 min 2 min 0 W/m 6,8 km/h (2 Bft) 95,74 %
21.12.2017 03:54 7,4 C 7,2 C 6,1 C 100 % 15 lf 1033,2 hPa 0,0 l/m 0 min 2 min 0 W/m 6,8 km/h (2 Bft) 91,49 %
21.12.2017 03:56 7,4 C 7,2 C 6,1 C 100 % 15 lf 1033,1 hPa 0,0 l/m 0 min 0 min 0 W/m 6,8 km/h (2 Bft) 93,62 %
21.12.2017 03:58 7,4 C 7,2 C 6,1 C 100 % 15 lf 1033,1 hPa 0,0 l/m 0 min 0 min 0 W/m 9,0 km/h (2 Bft) 93,62 %
21.12.2017 04:00 7,4 C 7,2 C 6,1 C 100 % 15 lf 1033,1 hPa 0,0 l/m 0 min 0 min 0 W/m 6,8 km/h (2 Bft) 95,74 %
21.12.2017 04:05 7,4 C 7,2 C 6,1 C 100 % 15 lf 1033,0 hPa 0,0 l/m 0 min 0 min 0 W/m 9,0 km/h (2 Bft) 95,59 %
21.12.2017 04:06 7,4 C 7,2 C 6,1 C 100 % 15 lf 1033,0 hPa 0,0 l/m 0 min 0 min 0 W/m 6,8 km/h (2 Bft) 100,00 %
21.12.2017 04:08 7,4 C 7,2 C 6,1 C 100 % 15 lf 1033,0 hPa 0,0 l/m 0 min 0 min 0 W/m 9,0 km/h (2 Bft) 95,74 %
21.12.2017 04:10 7,4 C 7,2 C 6,1 C 100 % 15 lf 1033,0 hPa 0,0 l/m 0 min 0 min 0 W/m 9,0 km/h (2 Bft) 95,74 %
21.12.2017 04:12 7,4 C 7,2 C 6,1 C 100 % 15 lf 1033,0 hPa 0,0 l/m 0 min 0 min 0 W/m 6,8 km/h (2 Bft) 91,49 %
21.12.2017 04:14 7,4 C 7,2 C 6,1 C 100 % 15 lf 1032,9 hPa 0,0 l/m 0 min 0 min 0 W/m 9,0 km/h (2 Bft) 95,65 %
21.12.2017 04:16 7,4 C 7,2 C 6,1 C 100 % 15 lf 1033,1 hPa 0,0 l/m 0 min 0 min 0 W/m 9,0 km/h (2 Bft) 95,74 %
21.12.2017 04:18 7,4 C 7,2 C 6,1 C 100 % 15 lf 1032,9 hPa 0,0 l/m 0 min 0 min 0 W/m 9,0 km/h (2 Bft) 97,87 %
21.12.2017 04:20 7,4 C 7,2 C 6,1 C 100 % 15 lf 1032,9 hPa 0,0 l/m 0 min 0 min 0 W/m 6,8 km/h (2 Bft) 95,74 %
21.12.2017 04:22 7,4 C 7,2 C 6,1 C 100 % 15 lf 1033,0 hPa 0,0 l/m 0 min 0 min 0 W/m 6,8 km/h (2 Bft) 95,74 %
21.12.2017 04:24 7,4 C 7,2 C 6,1 C 100 % 15 lf 1032,9 hPa 0,0 l/m 0 min 0 min 0 W/m 6,8 km/h (2 Bft) 95,65 %
21.12.2017 04:26 7,4 C 7,2 C 6,1 C 100 % 15 lf 1032,9 hPa 0,0 l/m 0 min 0 min 0 W/m 6,8 km/h (2 Bft) 97,87 %
21.12.2017 04:28 7,4 C 7,2 C 6,1 C 100 % 15 lf 1032,9 hPa 0,0 l/m 0 min 0 min 0 W/m 6,8 km/h (2 Bft) 95,74 %
21.12.2017 04:30 7,4 C 7,2 C 6,1 C 100 % 15 lf 1032,9 hPa 0,0 l/m 0 min 0 min 0 W/m 6,8 km/h (2 Bft) 97,87 %
21.12.2017 04:32 7,4 C 7,2 C 6,1 C 100 % 15 lf 1032,9 hPa 0,0 l/m 0 min 0 min 0 W/m 4,5 km/h (1 Bft) 97,87 %
21.12.2017 04:34 7,3 C 7,2 C 6,1 C 100 % 15 lf 1033,0 hPa 0,0 l/m 0 min 0 min 0 W/m 6,8 km/h (2 Bft) 95,74 %
21.12.2017 04:36 7,4 C 7,2 C 6,1 C 100 % 15 lf 1032,9 hPa 0,2 l/m 0 min 0 min 0 W/m 2,3 km/h (1 Bft) 97,83 %
21.12.2017 04:38 7,3 C 7,2 C 6,1 C 100 % 15 lf 1032,9 hPa 0,0 l/m 0 min 0 min 0 W/m 6,8 km/h (2 Bft) 97,87 %
21.12.2017 04:40 7,4 C 7,2 C 6,1 C 100 % 15 lf 1032,9 hPa 0,0 l/m 0 min 0 min 0 W/m 6,8 km/h (2 Bft) 95,74 %
21.12.2017 04:42 7,3 C 7,2 C 6,1 C 100 % 15 lf 1032,8 hPa 0,0 l/m 0 min 0 min 0 W/m 6,8 km/h (2 Bft) 95,74 %
21.12.2017 04:44 7,3 C 7,2 C 6,1 C 100 % 15 lf 1032,9 hPa 0,0 l/m 0 min 0 min 0 W/m 4,5 km/h (1 Bft) 95,74 %
21.12.2017 04:46 7,3 C 7,2 C 6,1 C 100 % 15 lf 1032,9 hPa 0,0 l/m 0 min 0 min 0 W/m 6,8 km/h (2 Bft) 93,62 %
21.12.2017 04:48 7,3 C 7,2 C 6,1 C 100 % 15 lf 1032,9 hPa 0,0 l/m 0 min 0 min 0 W/m 6,8 km/h (2 Bft) 95,65 %
21.12.2017 04:50 7,3 C 7,2 C 6,1 C 100 % 15 lf 1032,8 hPa 0,0 l/m 0 min 0 min 0 W/m 4,5 km/h (1 Bft) 97,87 %
21.12.2017 04:52 7,3 C 7,2 C 6,1 C 100 % 15 lf 1032,8 hPa 0,0 l/m 0 min 0 min 0 W/m 6,8 km/h (2 Bft) 95,74 %
21.12.2017 04:54 7,3 C 7,2 C 6,1 C 100 % 15 lf 1032,8 hPa 0,0 l/m 0 min 0 min 0 W/m 11,3 km/h (2 Bft) 97,87 %
21.12.2017 04:56 7,3 C 7,2 C 6,1 C 100 % 15 lf 1032,8 hPa 0,0 l/m 0 min 0 min 0 W/m 9,0 km/h (2 Bft) 100,00 %
21.12.2017 04:58 7,3 C 7,2 C 6,1 C 100 % 15 lf 1032,6 hPa 0,0 l/m 0 min 0 min 0 W/m 6,8 km/h (2 Bft) 97,87 %
21.12.2017 05:00 7,3 C 7,2 C 6,1 C 100 % 15 lf 1032,6 hPa 0,0 l/m 0 min 0 min 0 W/m 9,0 km/h (2 Bft) 97,83 %
21.12.2017 05:02 7,3 C 7,2 C 6,1 C 100 % 15 lf 1032,6 hPa 0,0 l/m 0 min 0 min 0 W/m 11,3 km/h (2 Bft) 93,62 %
21.12.2017 05:04 7,3 C 7,2 C 6,1 C 100 % 15 lf 1032,6 hPa 0,0 l/m 0 min 0 min 0 W/m 11,3 km/h (2 Bft) 95,74 %
21.12.2017 05:06 7,3 C 7,2 C 6,1 C 100 % 15 lf 1032,6 hPa 0,0 l/m 0 min 0 min 0 W/m 11,3 km/h (2 Bft) 93,62 %
21.12.2017 05:08 7,3 C 7,2 C 6,1 C 100 % 15 lf 1032,7 hPa 0,0 l/m 0 min 0 min 0 W/m 6,8 km/h (2 Bft) 97,87 %
21.12.2017 05:10 7,3 C 7,2 C 6,1 C 100 % 15 lf 1032,6 hPa 0,0 l/m 0 min 0 min 0 W/m 9,0 km/h (2 Bft) 97,87 %
21.12.2017 05:12 7,3 C 7,2 C 6,1 C 100 % 15 lf 1032,7 hPa 0,0 l/m 0 min 0 min 0 W/m 6,8 km/h (2 Bft) 93,48 %
21.12.2017 05:14 7,3 C 7,2 C 6,1 C 100 % 15 lf 1032,7 hPa 0,0 l/m 0 min 0 min 0 W/m 11,3 km/h (2 Bft) 91,49 %
21.12.2017 05:16 7,3 C 7,2 C 6,1 C 100 % 15 lf 1032,7 hPa 0,0 l/m 0 min 0 min 0 W/m 13,5 km/h (3 Bft) 95,74 %
21.12.2017 05:18 7,3 C 7,2 C 6,1 C 100 % 15 lf 1032,7 hPa 0,0 l/m 0 min 0 min 0 W/m 13,5 km/h (3 Bft) 93,62 %
21.12.2017 05:20 7,3 C 7,2 C 6,1 C 100 % 15 lf 1032,7 hPa 0,0 l/m 0 min 0 min 0 W/m 13,5 km/h (3 Bft) 93,62 %
21.12.2017 05:22 7,3 C 7,2 C 6,1 C 100 % 15 lf 1032,7 hPa 0,0 l/m 0 min 0 min 0 W/m 9,0 km/h (2 Bft) 97,83 %
21.12.2017 05:24 7,3 C 7,2 C 6,1 C 100 % 15 lf 1032,7 hPa 0,0 l/m 0 min 0 min 0 W/m 9,0 km/h (2 Bft) 91,49 %
21.12.2017 05:26 7,3 C 7,2 C 6,1 C 100 % 15 lf 1032,7 hPa 0,0 l/m 0 min 0 min 0 W/m 13,5 km/h (3 Bft) 95,74 %
21.12.2017 05:28 7,3 C 7,2 C 6,1 C 100 % 15 lf 1032,6 hPa 0,0 l/m 0 min 0 min 0 W/m 13,5 km/h (3 Bft) 97,87 %
21.12.2017 05:30 7,3 C 7,2 C 6,1 C 100 % 15 lf 1032,6 hPa 0,0 l/m 0 min 0 min 0 W/m 13,5 km/h (3 Bft) 93,62 %
21.12.2017 05:32 7,3 C 7,2 C 6,1 C 100 % 15 lf 1032,6 hPa 0,0 l/m 0 min 0 min 0 W/m 11,3 km/h (2 Bft) 95,74 %
21.12.2017 05:34 7,3 C 7,2 C 6,1 C 100 % 15 lf 1032,6 hPa 0,0 l/m 0 min 0 min 0 W/m 11,3 km/h (2 Bft) 95,65 %
21.12.2017 05:35 7,3 C 7,2 C 6,1 C 100 % 15 lf 1032,7 hPa 0,0 l/m 0 min 0 min 0 W/m 15,8 km/h (3 Bft) 97,37 %
21.12.2017 05:40 7,3 C 7,2 C 6,1 C 100 % 15 lf 1032,6 hPa 0,0 l/m 0 min 0 min 0 W/m 9,0 km/h (2 Bft) 100,00 %
21.12.2017 05:42 7,3 C 7,2 C 6,1 C 100 % 15 lf 1032,6 hPa 0,0 l/m 0 min 0 min 0 W/m 11,3 km/h (2 Bft) 94,92 %
21.12.2017 05:44 7,3 C 7,2 C 6,1 C 100 % 15 lf 1032,6 hPa 0,0 l/m 0 min 0 min 0 W/m 11,3 km/h (2 Bft) 94,29 %
21.12.2017 05:46 7,3 C 7,2 C 6,1 C 100 % 15 lf 1032,6 hPa 0,0 l/m 0 min 0 min 0 W/m 13,5 km/h (3 Bft) 92,45 %
21.12.2017 05:48 7,3 C 7,2 C 6,1 C 100 % 15 lf 1032,6 hPa 0,0 l/m 0 min 0 min 0 W/m 15,8 km/h (3 Bft) 97,87 %
21.12.2017 05:50 7,3 C 7,2 C 6,1 C 100 % 15 lf 1032,6 hPa 0,0 l/m 0 min 0 min 0 W/m 11,3 km/h (2 Bft) 97,87 %
21.12.2017 05:52 7,3 C 7,2 C 6,1 C 100 % 15 lf 1032,6 hPa 0,0 l/m 0 min 0 min 0 W/m 9,0 km/h (2 Bft) 91,49 %
21.12.2017 05:57 7,3 C 7,2 C 6,1 C 100 % 15 lf 1032,6 hPa 0,0 l/m 0 min 0 min 0 W/m 13,5 km/h (3 Bft) 97,83 %
21.12.2017 05:58 7,3 C 7,2 C 6,1 C 100 % 15 lf 1032,6 hPa 0,0 l/m 0 min 0 min 0 W/m 6,8 km/h (2 Bft) 86,96 %
21.12.2017 06:00 7,3 C 7,2 C 6,1 C 100 % 15 lf 1032,6 hPa 0,0 l/m 0 min 0 min 0 W/m 13,5 km/h (3 Bft) 97,87 %
21.12.2017 06:02 7,3 C 7,2 C 6,1 C 100 % 15 lf 1032,6 hPa 0,0 l/m 0 min 0 min 0 W/m 11,3 km/h (2 Bft) 95,74 %
21.12.2017 06:04 7,3 C 7,2 C 6,1 C 100 % 15 lf 1032,6 hPa 0,0 l/m 0 min 0 min 0 W/m 15,8 km/h (3 Bft) 97,87 %
21.12.2017 06:06 7,3 C 7,2 C 6,1 C 100 % 15 lf 1032,5 hPa 0,0 l/m 0 min 0 min 0 W/m 15,8 km/h (3 Bft) 95,65 %
21.12.2017 06:10 7,3 C 7,2 C 6,1 C 100 % 15 lf 1032,6 hPa 0,0 l/m 0 min 0 min 0 W/m 13,5 km/h (3 Bft) 94,79 %
21.12.2017 06:12 7,3 C 7,2 C 6,1 C 100 % 15 lf 1032,7 hPa 0,0 l/m 0 min 0 min 0 W/m 11,3 km/h (2 Bft) 97,87 %
21.12.2017 06:14 7,3 C 7,2 C 6,1 C 100 % 15 lf 1032,7 hPa 0,0 l/m 0 min 0 min 0 W/m 11,3 km/h (2 Bft) 95,74 %
21.12.2017 06:16 7,3 C 7,2 C 6,1 C 100 % 15 lf 1032,6 hPa 0,0 l/m 0 min 0 min 0 W/m 13,5 km/h (3 Bft) 95,74 %
21.12.2017 06:18 7,3 C 7,2 C 6,1 C 100 % 15 lf 1032,6 hPa 0,0 l/m 0 min 0 min 0 W/m 11,3 km/h (2 Bft) 95,74 %
21.12.2017 06:20 7,3 C 7,2 C 6,1 C 100 % 15 lf 1032,7 hPa 0,0 l/m 0 min 0 min 0 W/m 9,0 km/h (2 Bft) 97,83 %
21.12.2017 06:22 7,3 C 7,2 C 6,1 C 100 % 15 lf 1032,7 hPa 0,0 l/m 0 min 0 min 0 W/m 13,5 km/h (3 Bft) 97,87 %
21.12.2017 06:24 7,3 C 7,2 C 6,1 C 100 % 15 lf 1032,7 hPa 0,0 l/m 0 min 0 min 0 W/m 13,5 km/h (3 Bft) 100,00 %
21.12.2017 06:26 7,3 C 7,2 C 6,1 C 100 % 15 lf 1032,6 hPa 0,0 l/m 0 min 0 min 0 W/m 11,3 km/h (2 Bft) 97,87 %
21.12.2017 06:28 7,3 C 7,2 C 6,1 C 100 % 15 lf 1032,6 hPa 0,0 l/m 0 min 0 min 0 W/m 11,3 km/h (2 Bft) 100,00 %
21.12.2017 06:30 7,3 C 7,2 C 6,1 C 100 % 15 lf 1032,6 hPa 0,0 l/m 0 min 0 min 0 W/m 13,5 km/h (3 Bft) 100,00 %
21.12.2017 06:32 7,3 C 7,2 C 6,1 C 100 % 15 lf 1032,6 hPa 0,0 l/m 0 min 0 min 0 W/m 18,0 km/h (3 Bft) 100,00 %
21.12.2017 06:34 7,3 C 7,2 C 6,1 C 100 % 15 lf 1032,6 hPa 0,0 l/m 0 min 0 min 0 W/m 13,5 km/h (3 Bft) 100,00 %
21.12.2017 06:36 7,3 C 7,2 C 6,1 C 100 % 15 lf 1032,6 hPa 0,0 l/m 0 min 0 min 0 W/m 9,0 km/h (2 Bft) 100,00 %
21.12.2017 06:38 7,3 C 7,2 C 6,1 C 100 % 15 lf 1032,6 hPa 0,0 l/m 0 min 0 min 0 W/m 11,3 km/h (2 Bft) 97,87 %
21.12.2017 06:40 7,3 C 7,2 C 6,1 C 100 % 15 lf 1032,6 hPa 0,0 l/m 0 min 0 min 0 W/m 9,0 km/h (2 Bft) 100,00 %
21.12.2017 06:42 7,3 C 7,2 C 6,1 C 100 % 15 lf 1032,6 hPa 0,0 l/m 0 min 0 min 0 W/m 13,5 km/h (3 Bft) 97,83 %
21.12.2017 06:44 7,3 C 7,2 C 6,1 C 100 % 15 lf 1032,6 hPa 0,0 l/m 0 min 0 min 0 W/m 11,3 km/h (2 Bft) 100,00 %
21.12.2017 06:46 7,3 C 7,2 C 6,1 C 100 % 15 lf 1032,6 hPa 0,0 l/m 0 min 0 min 0 W/m 11,3 km/h (2 Bft) 97,87 %
21.12.2017 06:48 7,3 C 7,2 C 6,1 C 100 % 15 lf 1032,6 hPa 0,0 l/m 0 min 0 min 0 W/m 6,8 km/h (2 Bft) 100,00 %
21.12.2017 06:50 7,3 C 7,2 C 6,1 C 100 % 15 lf 1032,7 hPa 0,0 l/m 0 min 0 min 0 W/m 9,0 km/h (2 Bft) 100,00 %
21.12.2017 06:52 7,3 C 7,2 C 6,1 C 100 % 15 lf 1032,7 hPa 0,0 l/m 0 min 0 min 0 W/m 9,0 km/h (2 Bft) 100,00 %
21.12.2017 06:54 7,3 C 7,2 C 6,1 C 100 % 15 lf 1032,7 hPa 0,0 l/m 0 min 0 min 0 W/m 6,8 km/h (2 Bft) 97,83 %
21.12.2017 06:56 7,3 C 7,2 C 6,1 C 100 % 15 lf 1032,6 hPa 0,0 l/m 0 min 0 min 0 W/m 6,8 km/h (2 Bft) 97,87 %
21.12.2017 06:58 7,3 C 7,2 C 6,1 C 100 % 15 lf 1032,6 hPa 0,0 l/m 0 min 0 min 0 W/m 9,0 km/h (2 Bft) 100,00 %
21.12.2017 07:00 7,3 C 7,2 C 6,1 C 100 % 15 lf 1032,6 hPa 0,0 l/m 0 min 0 min 0 W/m 11,3 km/h (2 Bft) 100,00 %
21.12.2017 07:02 7,3 C 7,2 C 6,1 C 100 % 15 lf 1032,6 hPa 0,0 l/m 0 min 0 min 0 W/m 11,3 km/h (2 Bft) 95,74 %
21.12.2017 07:04 7,3 C 7,2 C 6,1 C 100 % 15 lf 1032,6 hPa 0,0 l/m 0 min 0 min 0 W/m 11,3 km/h (2 Bft) 100,00 %
21.12.2017 07:06 7,3 C 7,2 C 6,1 C 100 % 15 lf 1032,6 hPa 0,0 l/m 0 min 0 min 0 W/m 11,3 km/h (2 Bft) 97,83 %
21.12.2017 07:08 7,3 C 7,2 C 6,1 C 100 % 15 lf 1032,6 hPa 0,0 l/m 0 min 0 min 0 W/m 20,3 km/h (4 Bft) 100,00 %
21.12.2017 07:10 7,3 C 7,2 C 6,1 C 100 % 15 lf 1032,7 hPa 0,0 l/m 0 min 0 min 0 W/m 13,5 km/h (3 Bft) 95,74 %
21.12.2017 07:12 7,3 C 7,2 C 6,1 C 100 % 15 lf 1032,6 hPa 0,0 l/m 0 min 0 min 0 W/m 15,8 km/h (3 Bft) 97,87 %
21.12.2017 07:14 7,3 C 7,2 C 6,1 C 100 % 15 lf 1032,6 hPa 0,0 l/m 0 min 2 min 0 W/m 11,3 km/h (2 Bft) 100,00 %
21.12.2017 07:16 7,3 C 7,2 C 6,1 C 100 % 15 lf 1032,6 hPa 0,0 l/m 0 min 2 min 0 W/m 11,3 km/h (2 Bft) 97,87 %
21.12.2017 07:18 7,3 C 7,2 C 6,1 C 100 % 15 lf 1032,6 hPa 0,0 l/m 0 min 2 min 0 W/m 13,5 km/h (3 Bft) 95,65 %
21.12.2017 07:20 7,4 C 7,2 C 6,1 C 100 % 15 lf 1032,6 hPa 0,0 l/m 0 min 2 min 0 W/m 13,5 km/h (3 Bft) 97,87 %
21.12.2017 07:22 7,4 C 7,2 C 6,1 C 100 % 15 lf 1032,6 hPa 0,0 l/m 0 min 2 min 0 W/m 11,3 km/h (2 Bft) 95,74 %
21.12.2017 07:24 7,3 C 7,2 C 6,1 C 100 % 15 lf 1032,6 hPa 0,0 l/m 0 min 2 min 0 W/m 13,5 km/h (3 Bft) 95,74 %
21.12.2017 07:26 7,3 C 7,2 C 6,1 C 100 % 15 lf 1032,7 hPa 0,0 l/m 0 min 0 min 0 W/m 11,3 km/h (2 Bft) 95,74 %
21.12.2017 07:28 7,4 C 7,2 C 6,1 C 100 % 15 lf 1032,7 hPa 0,0 l/m 0 min 0 min 0 W/m 13,5 km/h (3 Bft) 100,00 %
21.12.2017 07:30 7,4 C 7,2 C 6,1 C 100 % 15 lf 1032,7 hPa 0,0 l/m 0 min 0 min 0 W/m 9,0 km/h (2 Bft) 95,65 %
21.12.2017 07:32 7,4 C 7,2 C 6,1 C 100 % 15 lf 1032,7 hPa 0,0 l/m 0 min 0 min 0 W/m 4,5 km/h (1 Bft) 95,74 %
21.12.2017 07:34 7,3 C 7,2 C 6,1 C 100 % 15 lf 1032,7 hPa 0,0 l/m 0 min 0 min 0 W/m 9,0 km/h (2 Bft) 95,74 %
21.12.2017 07:36 7,4 C 7,2 C 6,1 C 100 % 15 lf 1032,7 hPa 0,0 l/m 0 min 0 min 0 W/m 6,8 km/h (2 Bft) 95,74 %
21.12.2017 07:38 7,4 C 7,2 C 6,1 C 100 % 15 lf 1032,7 hPa 0,0 l/m 0 min 0 min 0 W/m 6,8 km/h (2 Bft) 95,74 %
21.12.2017 07:40 7,4 C 7,2 C 6,1 C 100 % 15 lf 1032,7 hPa 0,0 l/m 0 min 0 min 0 W/m 9,0 km/h (2 Bft) 95,65 %
21.12.2017 07:42 7,3 C 7,2 C 6,1 C 100 % 15 lf 1032,7 hPa 0,0 l/m 0 min 0 min 0 W/m 9,0 km/h (2 Bft) 93,62 %
21.12.2017 07:44 7,4 C 7,2 C 6,1 C 100 % 15 lf 1032,7 hPa 0,0 l/m 0 min 0 min 0 W/m 6,8 km/h (2 Bft) 87,23 %
21.12.2017 07:46 7,3 C 7,2 C 6,1 C 100 % 15 lf 1032,7 hPa 0,0 l/m 0 min 0 min 0 W/m 11,3 km/h (2 Bft) 95,74 %
21.12.2017 07:48 7,3 C 7,2 C 6,1 C 100 % 15 lf 1032,7 hPa 0,0 l/m 0 min 0 min 0 W/m 11,3 km/h (2 Bft) 95,74 %
21.12.2017 07:50 7,4 C 7,2 C 6,1 C 100 % 15 lf 1032,7 hPa 0,0 l/m 0 min 0 min 0 W/m 6,8 km/h (2 Bft) 89,36 %
21.12.2017 07:52 7,3 C 7,2 C 6,1 C 100 % 15 lf 1032,7 hPa 0,0 l/m 0 min 0 min 0 W/m 9,0 km/h (2 Bft) 91,49 %
21.12.2017 07:54 7,3 C 7,2 C 6,1 C 100 % 15 lf 1032,7 hPa 0,0 l/m 0 min 0 min 0 W/m 9,0 km/h (2 Bft) 93,48 %
21.12.2017 07:56 7,3 C 7,2 C 6,1 C 100 % 15 lf 1032,8 hPa 0,0 l/m 0 min 0 min 0 W/m 9,0 km/h (2 Bft) 93,62 %
21.12.2017 07:58 7,4 C 7,2 C 6,1 C 100 % 15 lf 1032,8 hPa 0,0 l/m 0 min 0 min 0 W/m 6,8 km/h (2 Bft) 93,62 %
21.12.2017 08:00 7,3 C 7,2 C 6,1 C 100 % 15 lf 1032,8 hPa 0,0 l/m 0 min 0 min 0 W/m 9,0 km/h (2 Bft) 91,49 %
21.12.2017 08:02 7,4 C 7,2 C 6,1 C 100 % 15 lf 1032,8 hPa 0,0 l/m 0 min 0 min 0 W/m 11,3 km/h (2 Bft) 91,49 %
21.12.2017 08:04 7,4 C 7,2 C 6,1 C 100 % 15 lf 1032,7 hPa 0,0 l/m 0 min 0 min 0 W/m 11,3 km/h (2 Bft) 91,30 %
21.12.2017 08:06 7,3 C 7,2 C 6,1 C 100 % 15 lf 1032,8 hPa 0,0 l/m 0 min 0 min 0 W/m 13,5 km/h (3 Bft) 93,62 %
21.12.2017 08:08 7,4 C 7,2 C 6,1 C 100 % 15 lf 1032,7 hPa 0,0 l/m 0 min 0 min 0 W/m 11,3 km/h (2 Bft) 89,36 %
21.12.2017 08:10 7,4 C 7,2 C 6,1 C 100 % 15 lf 1032,7 hPa 0,0 l/m 0 min 0 min 0 W/m 11,3 km/h (2 Bft) 95,74 %
21.12.2017 08:12 7,4 C 7,2 C 6,1 C 100 % 15 lf 1032,7 hPa 0,0 l/m 0 min 0 min 0 W/m 11,3 km/h (2 Bft) 93,62 %
21.12.2017 08:14 7,4 C 7,2 C 6,1 C 100 % 15 lf 1032,7 hPa 0,0 l/m 0 min 0 min 0 W/m 11,3 km/h (2 Bft) 91,49 %
21.12.2017 08:16 7,4 C 7,2 C 6,1 C 100 % 15 lf 1032,7 hPa 0,0 l/m 0 min 0 min 0 W/m 13,5 km/h (3 Bft) 95,65 %
21.12.2017 08:18 7,4 C 7,2 C 6,1 C 100 % 15 lf 1032,7 hPa 0,0 l/m 0 min 0 min 0 W/m 9,0 km/h (2 Bft) 91,49 %
21.12.2017 08:20 7,4 C 7,2 C 6,1 C 100 % 15 lf 1032,7 hPa 0,0 l/m 0 min 0 min 0 W/m 9,0 km/h (2 Bft) 91,49 %
21.12.2017 08:22 7,4 C 7,2 C 6,1 C 100 % 15 lf 1032,8 hPa 0,0 l/m 0 min 0 min 0 W/m 11,3 km/h (2 Bft) 91,49 %
21.12.2017 08:24 7,4 C 7,2 C 6,1 C 100 % 15 lf 1032,8 hPa 0,0 l/m 0 min 0 min 0 W/m 11,3 km/h (2 Bft) 91,49 %
21.12.2017 08:26 7,4 C 7,2 C 6,1 C 100 % 15 lf 1032,8 hPa 0,0 l/m 0 min 0 min 0 W/m 11,3 km/h (2 Bft) 91,49 %
21.12.2017 08:28 7,4 C 7,2 C 6,1 C 100 % 15 lf 1032,8 hPa 0,0 l/m 0 min 0 min 0 W/m 9,0 km/h (2 Bft) 93,48 %
21.12.2017 08:30 7,4 C 7,2 C 6,1 C 100 % 15 lf 1032,7 hPa 0,0 l/m 0 min 2 min 0 W/m 9,0 km/h (2 Bft) 93,62 %
21.12.2017 08:32 7,4 C 7,2 C 6,1 C 100 % 15 lf 1032,8 hPa 0,0 l/m 0 min 0 min 0 W/m 11,3 km/h (2 Bft) 93,62 %
21.12.2017 08:34 7,4 C 7,2 C 6,1 C 100 % 15 lf 1032,8 hPa 0,0 l/m 0 min 0 min 0 W/m 15,8 km/h (3 Bft) 95,74 %
21.12.2017 08:36 7,4 C 7,2 C 6,1 C 100 % 15 lf 1032,9 hPa 0,0 l/m 0 min 2 min 0 W/m 13,5 km/h (3 Bft) 82,98 %
21.12.2017 08:38 7,4 C 7,2 C 6,1 C 100 % 15 lf 1032,9 hPa 0,0 l/m 0 min 0 min 0 W/m 13,5 km/h (3 Bft) 97,87 %
21.12.2017 08:40 7,4 C 7,2 C 6,1 C 100 % 15 lf 1032,9 hPa 0,0 l/m 0 min 0 min 0 W/m 11,3 km/h (2 Bft) 97,83 %
21.12.2017 08:42 7,4 C 7,2 C 6,1 C 100 % 15 lf 1032,9 hPa 0,0 l/m 0 min 0 min 0 W/m 11,3 km/h (2 Bft) 95,74 %
21.12.2017 08:44 7,4 C 7,2 C 6,1 C 100 % 15 lf 1032,9 hPa 0,0 l/m 0 min 0 min 0 W/m 15,8 km/h (3 Bft) 97,87 %
21.12.2017 08:46 7,4 C 7,2 C 6,1 C 100 % 15 lf 1032,9 hPa 0,0 l/m 0 min 0 min 0 W/m 9,0 km/h (2 Bft) 95,74 %
21.12.2017 08:48 7,4 C 7,2 C 6,1 C 100 % 15 lf 1032,9 hPa 0,0 l/m 0 min 0 min 0 W/m 9,0 km/h (2 Bft) 95,74 %
21.12.2017 08:50 7,4 C 7,2 C 6,1 C 100 % 15 lf 1032,9 hPa 0,2 l/m 0 min 0 min 0 W/m 9,0 km/h (2 Bft) 97,87 %
21.12.2017 08:52 7,4 C 7,2 C 6,1 C 100 % 15 lf 1032,9 hPa 0,0 l/m 0 min 0 min 0 W/m 6,8 km/h (2 Bft) 95,65 %
21.12.2017 08:54 7,4 C 7,2 C 6,1 C 100 % 15 lf 1032,9 hPa 0,0 l/m 0 min 0 min 0 W/m 9,0 km/h (2 Bft) 97,87 %
21.12.2017 08:56 7,4 C 7,2 C 6,1 C 100 % 15 lf 1033,0 hPa 0,0 l/m 0 min 0 min 0 W/m 9,0 km/h (2 Bft) 95,74 %
21.12.2017 08:58 7,4 C 7,2 C 6,1 C 100 % 15 lf 1033,0 hPa 0,0 l/m 0 min 0 min 3 W/m 9,0 km/h (2 Bft) 97,87 %
21.12.2017 09:00 7,4 C 7,2 C 6,1 C 100 % 15 lf 1033,0 hPa 0,0 l/m 0 min 0 min 5 W/m 11,3 km/h (2 Bft) 97,87 %
21.12.2017 09:02 7,4 C 7,2 C 6,1 C 100 % 15 lf 1032,9 hPa 0,0 l/m 0 min 0 min 5 W/m 11,3 km/h (2 Bft) 97,83 %
21.12.2017 09:04 7,4 C 7,2 C 6,1 C 100 % 15 lf 1032,9 hPa 0,0 l/m 0 min 0 min 6 W/m 13,5 km/h (3 Bft) 97,87 %
21.12.2017 09:06 7,4 C 7,2 C 6,1 C 100 % 15 lf 1032,9 hPa 0,0 l/m 0 min 2 min 7 W/m 9,0 km/h (2 Bft) 95,74 %
21.12.2017 09:08 7,4 C 7,2 C 6,1 C 100 % 15 lf 1032,9 hPa 0,0 l/m 0 min 0 min 7 W/m 9,0 km/h (2 Bft) 100,00 %
21.12.2017 09:10 7,4 C 7,2 C 6,1 C 100 % 15 lf 1032,9 hPa 0,0 l/m 0 min 0 min 9 W/m 11,3 km/h (2 Bft) 97,87 %
21.12.2017 09:12 7,4 C 7,2 C 6,1 C 100 % 15 lf 1032,9 hPa 0,0 l/m 0 min 0 min 9 W/m 13,5 km/h (3 Bft) 97,87 %
21.12.2017 09:14 7,4 C 7,2 C 6,1 C 100 % 15 lf 1032,9 hPa 0,0 l/m 0 min 0 min 10 W/m 13,5 km/h (3 Bft) 100,00 %
21.12.2017 09:16 7,4 C 7,2 C 6,1 C 100 % 15 lf 1032,9 hPa 0,0 l/m 0 min 0 min 11 W/m 11,3 km/h (2 Bft) 95,65 %
21.12.2017 09:18 7,4 C 7,2 C 6,7 C 100 % 15 lf 1032,9 hPa 0,0 l/m 0 min 0 min 11 W/m 11,3 km/h (2 Bft) 97,87 %
21.12.2017 09:20 7,4 C 7,2 C 6,7 C 100 % 15 lf 1032,9 hPa 0,0 l/m 0 min 0 min 11 W/m 15,8 km/h (3 Bft) 97,87 %
21.12.2017 09:22 7,4 C 7,2 C 6,7 C 100 % 15 lf 1032,9 hPa 0,0 l/m 0 min 0 min 12 W/m 9,0 km/h (2 Bft) 97,87 %
21.12.2017 09:24 7,4 C 7,2 C 6,7 C 100 % 15 lf 1032,9 hPa 0,0 l/m 0 min 2 min 13 W/m 11,3 km/h (2 Bft) 97,87 %
21.12.2017 09:26 7,5 C 7,2 C 6,7 C 100 % 15 lf 1032,9 hPa 0,0 l/m 0 min 0 min 14 W/m 11,3 km/h (2 Bft) 93,48 %
21.12.2017 09:28 7,5 C 7,2 C 6,7 C 100 % 15 lf 1032,9 hPa 0,0 l/m 0 min 0 min 16 W/m 13,5 km/h (3 Bft) 100,00 %
21.12.2017 09:30 7,5 C 7,2 C 6,7 C 100 % 15 lf 1032,9 hPa 0,0 l/m 0 min 0 min 18 W/m 11,3 km/h (2 Bft) 95,74 %
21.12.2017 09:32 7,5 C 7,2 C 6,7 C 100 % 15 lf 1032,9 hPa 0,0 l/m 0 min 0 min 19 W/m 11,3 km/h (2 Bft) 97,87 %
21.12.2017 09:34 7,5 C 7,2 C 6,7 C 100 % 15 lf 1032,8 hPa 0,0 l/m 0 min 0 min 20 W/m 13,5 km/h (3 Bft) 95,74 %
21.12.2017 09:36 7,5 C 7,2 C 6,7 C 100 % 15 lf 1032,8 hPa 0,0 l/m 0 min 0 min 21 W/m 9,0 km/h (2 Bft) 95,74 %
21.12.2017 09:38 7,5 C 7,2 C 6,7 C 100 % 15 lf 1032,8 hPa 0,0 l/m 0 min 0 min 25 W/m 11,3 km/h (2 Bft) 95,65 %
21.12.2017 09:40 7,5 C 7,2 C 6,7 C 100 % 15 lf 1032,8 hPa 0,0 l/m 0 min 0 min 25 W/m 15,8 km/h (3 Bft) 97,87 %
21.12.2017 09:42 7,5 C 7,2 C 6,7 C 100 % 15 lf 1032,8 hPa 0,0 l/m 0 min 0 min 22 W/m 15,8 km/h (3 Bft) 95,74 %
21.12.2017 09:44 7,6 C 7,2 C 6,7 C 100 % 15 lf 1033,0 hPa 0,0 l/m 0 min 0 min 19 W/m 18,0 km/h (3 Bft) 97,87 %
21.12.2017 09:46 7,6 C 7,2 C 6,7 C 100 % 15 lf 1033,0 hPa 0,0 l/m 0 min 0 min 16 W/m 13,5 km/h (3 Bft) 93,62 %
21.12.2017 09:48 7,6 C 7,2 C 6,7 C 100 % 15 lf 1033,0 hPa 0,0 l/m 0 min 0 min 14 W/m 15,8 km/h (3 Bft) 93,62 %
21.12.2017 09:50 7,6 C 7,2 C 6,7 C 100 % 15 lf 1033,1 hPa 0,0 l/m 0 min 0 min 12 W/m 13,5 km/h (3 Bft) 95,65 %
21.12.2017 09:52 7,6 C 7,2 C 6,7 C 100 % 15 lf 1033,1 hPa 0,0 l/m 0 min 0 min 12 W/m 18,0 km/h (3 Bft) 95,74 %
21.12.2017 09:54 7,6 C 7,2 C 6,7 C 100 % 15 lf 1033,1 hPa 0,0 l/m 0 min 0 min 11 W/m 18,0 km/h (3 Bft) 95,74 %
21.12.2017 09:56 7,6 C 7,2 C 6,7 C 100 % 15 lf 1033,0 hPa 0,0 l/m 0 min 0 min 12 W/m 15,8 km/h (3 Bft) 97,87 %
21.12.2017 09:58 7,6 C 7,2 C 6,7 C 100 % 15 lf 1033,1 hPa 0,0 l/m 0 min 0 min 13 W/m 15,8 km/h (3 Bft) 93,62 %
21.12.2017 10:00 7,6 C 7,2 C 6,7 C 100 % 15 lf 1033,0 hPa 0,0 l/m 0 min 0 min 15 W/m 22,5 km/h (4 Bft) 89,36 %
21.12.2017 10:02 7,6 C 7,2 C 6,7 C 100 % 15 lf 1033,0 hPa 0,0 l/m 0 min 0 min 16 W/m 18,0 km/h (3 Bft) 100,00 %
21.12.2017 10:04 7,6 C 7,2 C 6,7 C 100 % 15 lf 1033,0 hPa 0,0 l/m 0 min 0 min 16 W/m 15,8 km/h (3 Bft) 100,00 %
21.12.2017 10:08 7,6 C 7,8 C 6,7 C 100 % 15 lf 1032,9 hPa 0,0 l/m 0 min 0 min 18 W/m 18,0 km/h (3 Bft) 100,00 %
21.12.2017 10:10 7,6 C 7,8 C 6,7 C 100 % 15 lf 1032,9 hPa 0,0 l/m 0 min 0 min 20 W/m 13,5 km/h (3 Bft) 97,87 %
21.12.2017 10:12 7,6 C 7,8 C 6,7 C 100 % 15 lf 1032,9 hPa 0,0 l/m 0 min 0 min 20 W/m 15,8 km/h (3 Bft) 100,00 %
21.12.2017 10:14 7,7 C 7,8 C 6,7 C 100 % 15 lf 1032,9 hPa 0,0 l/m 0 min 0 min 21 W/m 18,0 km/h (3 Bft) 100,00 %
21.12.2017 10:16 7,7 C 7,8 C 6,7 C 100 % 15 lf 1032,9 hPa 0,0 l/m 0 min 0 min 23 W/m 13,5 km/h (3 Bft) 95,74 %
21.12.2017 10:18 7,7 C 7,8 C 6,7 C 100 % 15 lf 1032,9 hPa 0,0 l/m 0 min 0 min 25 W/m 13,5 km/h (3 Bft) 91,49 %
21.12.2017 10:20 7,7 C 7,8 C 6,7 C 100 % 15 lf 1033,1 hPa 0,0 l/m 0 min 0 min 26 W/m 11,3 km/h (2 Bft) 100,00 %
21.12.2017 10:22 7,7 C 7,8 C 6,7 C 100 % 15 lf 1033,1 hPa 0,0 l/m 0 min 0 min 25 W/m 15,8 km/h (3 Bft) 97,87 %
21.12.2017 10:24 7,7 C 7,8 C 6,7 C 100 % 15 lf 1033,1 hPa 0,0 l/m 0 min 0 min 25 W/m 15,8 km/h (3 Bft) 95,65 %
21.12.2017 10:26 7,7 C 7,8 C 6,7 C 100 % 15 lf 1033,1 hPa 0,0 l/m 0 min 0 min 22 W/m 13,5 km/h (3 Bft) 100,00 %
21.12.2017 10:28 7,7 C 7,8 C 6,7 C 100 % 15 lf 1033,2 hPa 0,0 l/m 0 min 0 min 22 W/m 13,5 km/h (3 Bft) 97,87 %
21.12.2017 10:30 7,7 C 7,8 C 6,7 C 100 % 15 lf 1033,2 hPa 0,0 l/m 0 min 0 min 20 W/m 11,3 km/h (2 Bft) 100,00 %
21.12.2017 10:32 7,7 C 7,8 C 6,7 C 100 % 15 lf 1033,2 hPa 0,0 l/m 0 min 0 min 19 W/m 11,3 km/h (2 Bft) 100,00 %
21.12.2017 10:34 7,7 C 7,8 C 6,7 C 100 % 15 lf 1033,2 hPa 0,0 l/m 0 min 0 min 19 W/m 11,3 km/h (2 Bft) 97,87 %
21.12.2017 10:36 7,8 C 7,8 C 6,7 C 100 % 15 lf 1033,2 hPa 0,0 l/m 0 min 0 min 21 W/m 11,3 km/h (2 Bft) 100,00 %
21.12.2017 10:38 7,8 C 7,8 C 6,7 C 100 % 15 lf 1033,2 hPa 0,0 l/m 0 min 0 min 23 W/m 18,0 km/h (3 Bft) 95,74 %
21.12.2017 10:40 7,8 C 7,8 C 6,7 C 100 % 15 lf 1033,2 hPa 0,0 l/m 0 min 0 min 21 W/m 11,3 km/h (2 Bft) 97,83 %
21.12.2017 10:42 7,8 C 7,8 C 6,7 C 100 % 15 lf 1033,3 hPa 0,0 l/m 0 min 0 min 19 W/m 9,0 km/h (2 Bft) 97,87 %
21.12.2017 10:44 7,8 C 7,8 C 6,7 C 100 % 15 lf 1033,2 hPa 0,0 l/m 0 min 0 min 19 W/m 11,3 km/h (2 Bft) 95,74 %
21.12.2017 10:46 7,8 C 7,8 C 6,7 C 100 % 15 lf 1033,3 hPa 0,0 l/m 0 min 0 min 19 W/m 11,3 km/h (2 Bft) 97,87 %
21.12.2017 10:48 7,8 C 7,8 C 6,7 C 100 % 15 lf 1033,3 hPa 0,0 l/m 0 min 0 min 19 W/m 9,0 km/h (2 Bft) 95,74 %
21.12.2017 10:50 7,8 C 7,8 C 6,7 C 100 % 15 lf 1033,3 hPa 0,0 l/m 0 min 0 min 19 W/m 11,3 km/h (2 Bft) 96,55 %
21.12.2017 10:52 7,8 C 7,8 C 6,7 C 100 % 15 lf 1033,3 hPa 0,0 l/m 0 min 0 min 18 W/m 11,3 km/h (2 Bft) 97,14 %
21.12.2017 10:54 7,8 C 7,8 C 6,7 C 100 % 15 lf 1033,3 hPa 0,0 l/m 0 min 0 min 19 W/m 15,8 km/h (3 Bft) 96,61 %
21.12.2017 10:56 7,8 C 7,8 C 6,7 C 100 % 15 lf 1033,3 hPa 0,0 l/m 0 min 0 min 20 W/m 9,0 km/h (2 Bft) 93,62 %
21.12.2017 10:58 7,8 C 7,8 C 6,7 C 100 % 15 lf 1033,3 hPa 0,0 l/m 0 min 0 min 23 W/m 13,5 km/h (3 Bft) 97,83 %
21.12.2017 11:00 7,8 C 7,8 C 6,7 C 100 % 15 lf 1033,3 hPa 0,0 l/m 0 min 0 min 23 W/m 15,8 km/h (3 Bft) 95,74 %
21.12.2017 11:02 7,8 C 7,8 C 7,2 C 100 % 15 lf 1033,3 hPa 0,0 l/m 0 min 0 min 24 W/m 9,0 km/h (2 Bft) 93,62 %
21.12.2017 11:04 7,9 C 7,8 C 7,2 C 100 % 15 lf 1033,3 hPa 0,0 l/m 0 min 0 min 23 W/m 9,0 km/h (2 Bft) 95,74 %
21.12.2017 11:06 7,9 C 7,8 C 7,2 C 100 % 15 lf 1033,3 hPa 0,0 l/m 0 min 0 min 23 W/m 11,3 km/h (2 Bft) 93,62 %
21.12.2017 11:08 7,9 C 7,8 C 7,2 C 100 % 15 lf 1033,3 hPa 0,0 l/m 0 min 0 min 22 W/m 15,8 km/h (3 Bft) 91,49 %
21.12.2017 11:10 7,9 C 7,8 C 7,2 C 100 % 15 lf 1033,3 hPa 0,0 l/m 0 min 0 min 21 W/m 13,5 km/h (3 Bft) 93,48 %
21.12.2017 11:12 7,9 C 7,8 C 7,2 C 100 % 15 lf 1033,3 hPa 0,0 l/m 0 min 0 min 22 W/m 15,8 km/h (3 Bft) 93,62 %
21.12.2017 11:14 7,9 C 7,8 C 7,2 C 100 % 15 lf 1033,2 hPa 0,0 l/m 0 min 0 min 24 W/m 11,3 km/h (2 Bft) 89,36 %
21.12.2017 11:16 7,9 C 7,8 C 7,2 C 100 % 15 lf 1033,3 hPa 0,0 l/m 0 min 0 min 24 W/m 15,8 km/h (3 Bft) 93,62 %
21.12.2017 11:18 7,9 C 7,8 C 7,2 C 100 % 15 lf 1033,3 hPa 0,0 l/m 0 min 0 min 25 W/m 11,3 km/h (2 Bft) 91,49 %
21.12.2017 11:20 7,9 C 7,8 C 7,2 C 100 % 15 lf 1033,2 hPa 0,0 l/m 0 min 0 min 28 W/m 15,8 km/h (3 Bft) 93,62 %
21.12.2017 11:22 7,9 C 7,8 C 7,2 C 100 % 15 lf 1033,2 hPa 0,0 l/m 0 min 0 min 31 W/m 9,0 km/h (2 Bft) 89,36 %
21.12.2017 11:24 7,9 C 7,8 C 7,2 C 100 % 15 lf 1033,2 hPa 0,0 l/m 0 min 0 min 33 W/m 13,5 km/h (3 Bft) 95,65 %
21.12.2017 11:26 8,0 C 7,8 C 7,2 C 100 % 15 lf 1033,2 hPa 0,0 l/m 0 min 0 min 33 W/m 11,3 km/h (2 Bft) 95,74 %
21.12.2017 11:28 8,0 C 7,8 C 7,2 C 100 % 15 lf 1033,2 hPa 0,0 l/m 0 min 0 min 38 W/m 18,0 km/h (3 Bft) 93,62 %
21.12.2017 11:30 8,0 C 8,3 C 7,2 C 100 % 15 lf 1033,2 hPa 0,0 l/m 0 min 2 min 41 W/m 15,8 km/h (3 Bft) 93,62 %
21.12.2017 11:32 8,1 C 8,3 C 7,2 C 100 % 15 lf 1033,2 hPa 0,0 l/m 0 min 0 min 46 W/m 13,5 km/h (3 Bft) 91,49 %
21.12.2017 11:34 8,1 C 8,3 C 7,2 C 100 % 15 lf 1033,1 hPa 0,0 l/m 0 min 0 min 49 W/m 11,3 km/h (2 Bft) 93,48 %
21.12.2017 11:36 8,1 C 8,3 C 7,2 C 100 % 15 lf 1033,1 hPa 0,0 l/m 0 min 0 min 56 W/m 9,0 km/h (2 Bft) 91,49 %
21.12.2017 11:38 8,1 C 8,3 C 7,2 C 100 % 15 lf 1033,0 hPa 0,0 l/m 0 min 0 min 62 W/m 13,5 km/h (3 Bft) 95,74 %
21.12.2017 11:40 8,1 C 8,3 C 7,8 C 100 % 15 lf 1033,0 hPa 0,0 l/m 0 min 2 min 64 W/m 13,5 km/h (3 Bft) 93,62 %
21.12.2017 11:42 8,1 C 8,3 C 7,8 C 100 % 15 lf 1033,0 hPa 0,0 l/m 0 min 2 min 65 W/m 11,3 km/h (2 Bft) 91,49 %
21.12.2017 11:44 8,2 C 8,3 C 7,8 C 100 % 15 lf 1033,1 hPa 0,0 l/m 0 min 0 min 69 W/m 11,3 km/h (2 Bft) 91,49 %
21.12.2017 11:46 8,2 C 8,3 C 7,8 C 100 % 15 lf 1033,0 hPa 0,0 l/m 0 min 0 min 67 W/m 9,0 km/h (2 Bft) 91,30 %
21.12.2017 11:48 8,2 C 8,3 C 7,8 C 100 % 15 lf 1033,0 hPa 0,0 l/m 0 min 0 min 67 W/m 13,5 km/h (3 Bft) 93,62 %
21.12.2017 11:50 8,2 C 8,3 C 7,8 C 100 % 15 lf 1032,9 hPa 0,0 l/m 0 min 0 min 61 W/m 13,5 km/h (3 Bft) 95,74 %
21.12.2017 11:52 8,3 C 8,3 C 7,8 C 100 % 15 lf 1032,9 hPa 0,0 l/m 0 min 0 min 61 W/m 13,5 km/h (3 Bft) 93,62 %
21.12.2017 11:54 8,3 C 8,3 C 7,8 C 100 % 15 lf 1032,9 hPa 0,0 l/m 0 min 0 min 57 W/m 11,3 km/h (2 Bft) 93,62 %
21.12.2017 11:56 8,3 C 8,3 C 7,8 C 100 % 15 lf 1033,1 hPa 0,0 l/m 0 min 0 min 56 W/m 9,0 km/h (2 Bft) 93,62 %
21.12.2017 11:58 8,3 C 8,3 C 7,8 C 100 % 15 lf 1033,0 hPa 0,0 l/m 0 min 0 min 57 W/m 9,0 km/h (2 Bft) 95,65 %
21.12.2017 12:00 8,3 C 8,3 C 7,8 C 100 % 15 lf 1033,0 hPa 0,0 l/m 0 min 0 min 55 W/m 11,3 km/h (2 Bft) 95,74 %
21.12.2017 12:02 8,3 C 8,3 C 7,8 C 100 % 15 lf 1033,0 hPa 0,0 l/m 0 min 0 min 53 W/m 9,0 km/h (2 Bft) 89,36 %
21.12.2017 12:04 8,4 C 8,3 C 7,8 C 100 % 15 lf 1032,9 hPa 0,0 l/m 0 min 0 min 55 W/m 13,5 km/h (3 Bft) 97,87 %
21.12.2017 12:06 8,4 C 8,3 C 7,8 C 100 % 15 lf 1032,9 hPa 0,0 l/m 0 min 0 min 62 W/m 15,8 km/h (3 Bft) 97,87 %
21.12.2017 12:10 8,4 C 8,3 C 7,8 C 100 % 15 lf 1032,9 hPa 0,0 l/m 0 min 0 min 51 W/m 11,3 km/h (2 Bft) 96,59 %
21.12.2017 12:12 8,4 C 8,3 C 7,8 C 100 % 15 lf 1032,9 hPa 0,0 l/m 0 min 0 min 43 W/m 9,0 km/h (2 Bft) 100,00 %
21.12.2017 12:14 8,4 C 8,3 C 7,8 C 100 % 15 lf 1032,8 hPa 0,0 l/m 0 min 0 min 40 W/m 11,3 km/h (2 Bft) 100,00 %
21.12.2017 12:16 8,4 C 8,3 C 7,8 C 100 % 15 lf 1032,9 hPa 0,0 l/m 0 min 0 min 43 W/m 13,5 km/h (3 Bft) 100,00 %
21.12.2017 12:18 8,4 C 8,3 C 7,8 C 100 % 15 lf 1032,9 hPa 0,0 l/m 0 min 0 min 42 W/m 13,5 km/h (3 Bft) 97,87 %
21.12.2017 12:20 8,4 C 8,3 C 7,8 C 100 % 15 lf 1032,8 hPa 0,0 l/m 0 min 0 min 40 W/m 11,3 km/h (2 Bft) 97,83 %
21.12.2017 12:22 8,4 C 8,3 C 7,8 C 100 % 15 lf 1032,8 hPa 0,0 l/m 0 min 0 min 40 W/m 11,3 km/h (2 Bft) 100,00 %
21.12.2017 12:24 8,4 C 8,3 C 7,8 C 100 % 15 lf 1032,8 hPa 0,0 l/m 0 min 0 min 35 W/m 13,5 km/h (3 Bft) 100,00 %
21.12.2017 12:26 8,4 C 8,3 C 7,8 C 100 % 15 lf 1032,8 hPa 0,0 l/m 0 min 0 min 29 W/m 9,0 km/h (2 Bft) 100,00 %
21.12.2017 12:28 8,4 C 8,3 C 7,8 C 100 % 15 lf 1032,8 hPa 0,0 l/m 0 min 0 min 29 W/m 13,5 km/h (3 Bft) 97,87 %
21.12.2017 12:30 8,4 C 8,3 C 7,8 C 100 % 15 lf 1032,8 hPa 0,0 l/m 0 min 0 min 29 W/m 6,8 km/h (2 Bft) 94,29 %
21.12.2017 12:32 8,4 C 8,3 C 7,8 C 100 % 15 lf 1032,8 hPa 0,0 l/m 0 min 0 min 34 W/m 6,8 km/h (2 Bft) 98,36 %
21.12.2017 12:34 8,4 C 8,3 C 7,8 C 100 % 15 lf 1032,8 hPa 0,0 l/m 0 min 0 min 35 W/m 13,5 km/h (3 Bft) 95,74 %
21.12.2017 12:38 8,4 C 8,3 C 7,8 C 100 % 15 lf 1032,8 hPa 0,0 l/m 0 min 0 min 27 W/m 9,0 km/h (2 Bft) 98,94 %
21.12.2017 12:40 8,4 C 8,3 C 7,8 C 100 % 15 lf 1032,8 hPa 0,0 l/m 0 min 0 min 26 W/m 6,8 km/h (2 Bft) 97,87 %
21.12.2017 12:42 8,4 C 8,3 C 7,8 C 100 % 15 lf 1032,8 hPa 0,0 l/m 0 min 0 min 22 W/m 6,8 km/h (2 Bft) 100,00 %
21.12.2017 12:44 8,5 C 8,3 C 7,8 C 100 % 15 lf 1032,8 hPa 0,0 l/m 0 min 0 min 23 W/m 9,0 km/h (2 Bft) 97,87 %
21.12.2017 12:46 8,5 C 8,3 C 7,8 C 100 % 15 lf 1032,8 hPa 0,0 l/m 0 min 0 min 22 W/m 11,3 km/h (2 Bft) 95,74 %
21.12.2017 12:48 8,5 C 8,3 C 7,2 C 100 % 15 lf 1032,7 hPa 0,0 l/m 0 min 0 min 21 W/m 15,8 km/h (3 Bft) 100,00 %
21.12.2017 12:50 8,5 C 8,3 C 7,2 C 100 % 15 lf 1032,7 hPa 0,0 l/m 0 min 0 min 22 W/m 13,5 km/h (3 Bft) 97,87 %
21.12.2017 12:52 8,4 C 8,3 C 7,2 C 100 % 15 lf 1032,6 hPa 0,0 l/m 0 min 0 min 23 W/m 18,0 km/h (3 Bft) 95,74 %
21.12.2017 12:54 8,5 C 8,3 C 7,2 C 100 % 15 lf 1032,7 hPa 0,0 l/m 0 min 0 min 24 W/m 15,8 km/h (3 Bft) 97,83 %
21.12.2017 12:56 8,4 C 8,3 C 7,2 C 100 % 15 lf 1032,7 hPa 0,0 l/m 0 min 0 min 25 W/m 13,5 km/h (3 Bft) 100,00 %
21.12.2017 12:58 8,5 C 8,3 C 7,8 C 100 % 15 lf 1032,7 hPa 0,0 l/m 0 min 0 min 26 W/m 11,3 km/h (2 Bft) 100,00 %
21.12.2017 13:00 8,5 C 8,3 C 7,8 C 100 % 15 lf 1032,8 hPa 0,0 l/m 0 min 0 min 28 W/m 18,0 km/h (3 Bft) 100,00 %
21.12.2017 13:02 8,5 C 8,3 C 7,8 C 100 % 15 lf 1032,7 hPa 0,0 l/m 0 min 0 min 27 W/m 15,8 km/h (3 Bft) 97,87 %
21.12.2017 13:04 8,5 C 8,3 C 7,8 C 100 % 15 lf 1032,8 hPa 0,0 l/m 0 min 0 min 26 W/m 11,3 km/h (2 Bft) 100,00 %
21.12.2017 13:08 8,5 C 8,3 C 7,8 C 100 % 15 lf 1032,8 hPa 0,0 l/m 0 min 0 min 24 W/m 13,5 km/h (3 Bft) 97,85 %
21.12.2017 13:10 8,5 C 8,3 C 7,8 C 100 % 15 lf 1032,7 hPa 0,0 l/m 0 min 0 min 28 W/m 18,0 km/h (3 Bft) 100,00 %
21.12.2017 13:12 8,5 C 8,3 C 7,8 C 100 % 15 lf 1032,8 hPa 0,0 l/m 0 min 0 min 32 W/m 13,5 km/h (3 Bft) 100,00 %
21.12.2017 13:14 8,5 C 8,3 C 7,8 C 100 % 15 lf 1032,7 hPa 0,0 l/m 0 min 0 min 31 W/m 6,8 km/h (2 Bft) 97,87 %
21.12.2017 13:16 8,5 C 8,3 C 7,8 C 100 % 15 lf 1032,7 hPa 0,0 l/m 0 min 0 min 35 W/m 9,0 km/h (2 Bft) 100,00 %
21.12.2017 13:18 8,5 C 8,3 C 7,8 C 100 % 15 lf 1032,7 hPa 0,0 l/m 0 min 2 min 41 W/m 13,5 km/h (3 Bft) 100,00 %
21.12.2017 13:20 8,5 C 8,3 C 7,8 C 100 % 15 lf 1032,7 hPa 0,0 l/m 0 min 2 min 48 W/m 15,8 km/h (3 Bft) 100,00 %
21.12.2017 13:22 8,5 C 8,9 C 7,8 C 100 % 15 lf 1032,7 hPa 0,0 l/m 0 min 0 min 51 W/m 9,0 km/h (2 Bft) 100,00 %
21.12.2017 13:24 8,6 C 8,9 C 7,8 C 100 % 15 lf 1032,7 hPa 0,0 l/m 0 min 0 min 47 W/m 9,0 km/h (2 Bft) 95,74 %
21.12.2017 13:26 8,6 C 8,3 C 7,8 C 100 % 15 lf 1032,7 hPa 0,0 l/m 0 min 0 min 41 W/m 13,5 km/h (3 Bft) 95,74 %
21.12.2017 13:28 8,6 C 8,3 C 7,8 C 100 % 15 lf 1032,7 hPa 0,0 l/m 0 min 0 min 35 W/m 11,3 km/h (2 Bft) 95,74 %
21.12.2017 13:30 8,6 C 8,3 C 7,8 C 100 % 15 lf 1032,7 hPa 0,0 l/m 0 min 2 min 39 W/m 11,3 km/h (2 Bft) 95,65 %
21.12.2017 13:32 8,6 C 8,3 C 7,8 C 100 % 15 lf 1032,6 hPa 0,0 l/m 0 min 2 min 42 W/m 13,5 km/h (3 Bft) 93,62 %
21.12.2017 13:34 8,6 C 8,3 C 7,8 C 100 % 15 lf 1032,6 hPa 0,0 l/m 0 min 0 min 41 W/m 11,3 km/h (2 Bft) 91,49 %
21.12.2017 13:38 8,6 C 8,9 C 7,8 C 100 % 15 lf 1032,6 hPa 0,0 l/m 0 min 0 min 40 W/m 15,8 km/h (3 Bft) 94,74 %
21.12.2017 13:40 8,6 C 8,9 C 7,8 C 100 % 15 lf 1032,5 hPa 0,0 l/m 0 min 0 min 38 W/m 11,3 km/h (2 Bft) 89,36 %
21.12.2017 13:42 8,7 C 8,9 C 7,8 C 100 % 15 lf 1032,5 hPa 0,0 l/m 0 min 0 min 35 W/m 9,0 km/h (2 Bft) 93,48 %
21.12.2017 13:44 8,7 C 8,9 C 7,8 C 100 % 15 lf 1032,5 hPa 0,0 l/m 0 min 0 min 32 W/m 11,3 km/h (2 Bft) 97,87 %
21.12.2017 13:46 8,7 C 8,3 C 7,8 C 100 % 15 lf 1032,5 hPa 0,0 l/m 0 min 0 min 30 W/m 13,5 km/h (3 Bft) 93,62 %
21.12.2017 13:48 8,7 C 8,9 C 7,8 C 100 % 15 lf 1032,4 hPa 0,0 l/m 0 min 0 min 35 W/m 9,0 km/h (2 Bft) 93,62 %
21.12.2017 13:50 8,7 C 8,9 C 7,8 C 100 % 15 lf 1032,4 hPa 0,0 l/m 0 min 0 min 37 W/m 11,3 km/h (2 Bft) 91,49 %
21.12.2017 13:52 8,7 C 8,9 C 7,8 C 100 % 15 lf 1032,4 hPa 0,0 l/m 0 min 0 min 37 W/m 9,0 km/h (2 Bft) 93,62 %
21.12.2017 13:54 8,7 C 8,9 C 7,8 C 100 % 15 lf 1032,5 hPa 0,0 l/m 0 min 0 min 35 W/m 15,8 km/h (3 Bft) 93,48 %
21.12.2017 13:56 8,7 C 8,9 C 7,8 C 100 % 15 lf 1032,4 hPa 0,0 l/m 0 min 0 min 39 W/m 11,3 km/h (2 Bft) 91,49 %
21.12.2017 13:58 8,7 C 8,9 C 7,8 C 100 % 15 lf 1032,4 hPa 0,0 l/m 0 min 0 min 33 W/m 9,0 km/h (2 Bft) 93,62 %
21.12.2017 14:00 8,7 C 8,9 C 7,8 C 100 % 15 lf 1032,4 hPa 0,0 l/m 0 min 2 min 28 W/m 11,3 km/h (2 Bft) 91,49 %
21.12.2017 14:02 8,7 C 8,9 C 7,8 C 100 % 15 lf 1032,3 hPa 0,2 l/m 0 min 2 min 28 W/m 9,0 km/h (2 Bft) 95,74 %
21.12.2017 14:04 8,7 C 8,9 C 7,8 C 100 % 15 lf 1032,3 hPa 0,0 l/m 0 min 0 min 27 W/m 11,3 km/h (2 Bft) 95,74 %
21.12.2017 14:06 8,7 C 8,9 C 7,8 C 100 % 15 lf 1032,3 hPa 0,0 l/m 0 min 0 min 29 W/m 9,0 km/h (2 Bft) 95,65 %
21.12.2017 14:08 8,7 C 8,9 C 7,8 C 100 % 15 lf 1032,3 hPa 0,0 l/m 0 min 0 min 27 W/m 6,8 km/h (2 Bft) 91,49 %
21.12.2017 14:10 8,7 C 8,9 C 7,8 C 100 % 15 lf 1032,3 hPa 0,0 l/m 0 min 0 min 27 W/m 11,3 km/h (2 Bft) 95,74 %
21.12.2017 14:12 8,7 C 8,9 C 7,8 C 100 % 15 lf 1032,3 hPa 0,0 l/m 0 min 0 min 28 W/m 11,3 km/h (2 Bft) 95,74 %
21.12.2017 14:14 8,7 C 8,9 C 7,8 C 100 % 15 lf 1032,3 hPa 0,0 l/m 0 min 0 min 26 W/m 6,8 km/h (2 Bft) 97,87 %
21.12.2017 14:16 8,7 C 8,9 C 7,8 C 100 % 15 lf 1032,3 hPa 0,0 l/m 0 min 2 min 22 W/m 6,8 km/h (2 Bft) 97,83 %
21.12.2017 14:18 8,7 C 8,9 C 7,8 C 100 % 15 lf 1032,3 hPa 0,0 l/m 0 min 0 min 23 W/m 9,0 km/h (2 Bft) 95,74 %
21.12.2017 14:20 8,7 C 8,9 C 7,8 C 100 % 15 lf 1032,2 hPa 0,0 l/m 0 min 0 min 23 W/m 9,0 km/h (2 Bft) 97,87 %
21.12.2017 14:22 8,7 C 8,9 C 7,8 C 100 % 15 lf 1032,2 hPa 0,0 l/m 0 min 0 min 24 W/m 6,8 km/h (2 Bft) 97,87 %
21.12.2017 14:24 8,7 C 8,9 C 7,8 C 100 % 15 lf 1032,2 hPa 0,0 l/m 0 min 0 min 24 W/m 13,5 km/h (3 Bft) 97,87 %
21.12.2017 14:26 8,7 C 8,9 C 7,8 C 100 % 15 lf 1032,2 hPa 0,0 l/m 0 min 0 min 23 W/m 9,0 km/h (2 Bft) 93,62 %
21.12.2017 14:28 8,7 C 8,9 C 7,8 C 100 % 15 lf 1032,2 hPa 0,0 l/m 0 min 0 min 25 W/m 9,0 km/h (2 Bft) 95,65 %
21.12.2017 14:30 8,8 C 8,9 C 7,8 C 100 % 15 lf 1032,2 hPa 0,0 l/m 0 min 0 min 28 W/m 6,8 km/h (2 Bft) 95,74 %
21.12.2017 14:32 8,8 C 8,9 C 7,8 C 100 % 15 lf 1032,2 hPa 0,0 l/m 0 min 0 min 27 W/m 11,3 km/h (2 Bft) 95,74 %
21.12.2017 14:34 8,8 C 8,9 C 7,8 C 100 % 15 lf 1032,2 hPa 0,0 l/m 0 min 0 min 26 W/m 13,5 km/h (3 Bft) 93,62 %
21.12.2017 14:36 8,8 C 8,9 C 7,8 C 100 % 15 lf 1032,2 hPa 0,0 l/m 0 min 0 min 29 W/m 6,8 km/h (2 Bft) 95,74 %
21.12.2017 14:38 8,8 C 8,9 C 7,8 C 100 % 15 lf 1032,2 hPa 0,0 l/m 0 min 0 min 27 W/m 11,3 km/h (2 Bft) 95,74 %
21.12.2017 14:40 8,8 C 8,9 C 7,8 C 100 % 15 lf 1032,2 hPa 0,0 l/m 0 min 0 min 27 W/m 9,0 km/h (2 Bft) 91,30 %
21.12.2017 14:42 8,8 C 8,9 C 7,8 C 100 % 15 lf 1032,2 hPa 0,0 l/m 0 min 0 min 26 W/m 9,0 km/h (2 Bft) 95,74 %
21.12.2017 14:44 8,8 C 8,9 C 7,8 C 100 % 15 lf 1032,1 hPa 0,0 l/m 0 min 0 min 27 W/m 11,3 km/h (2 Bft) 97,87 %
21.12.2017 14:46 8,8 C 8,9 C 7,8 C 100 % 15 lf 1032,0 hPa 0,0 l/m 0 min 0 min 26 W/m 9,0 km/h (2 Bft) 91,49 %
21.12.2017 14:48 8,8 C 8,9 C 7,8 C 100 % 15 lf 1032,0 hPa 0,0 l/m 0 min 0 min 24 W/m 6,8 km/h (2 Bft) 95,74 %
21.12.2017 14:50 8,8 C 8,9 C 7,8 C 100 % 15 lf 1032,1 hPa 0,0 l/m 0 min 0 min 22 W/m 9,0 km/h (2 Bft) 95,74 %
21.12.2017 14:52 8,8 C 8,9 C 7,8 C 100 % 15 lf 1032,1 hPa 0,0 l/m 0 min 0 min 21 W/m 11,3 km/h (2 Bft) 95,65 %
21.12.2017 14:54 8,8 C 8,9 C 7,8 C 100 % 15 lf 1032,1 hPa 0,0 l/m 0 min 0 min 20 W/m 11,3 km/h (2 Bft) 97,87 %
21.12.2017 14:56 8,9 C 8,9 C 7,8 C 100 % 15 lf 1032,0 hPa 0,0 l/m 0 min 0 min 22 W/m 11,3 km/h (2 Bft) 97,87 %
21.12.2017 14:58 8,9 C 8,9 C 7,8 C 100 % 15 lf 1032,0 hPa 0,0 l/m 0 min 0 min 19 W/m 15,8 km/h (3 Bft) 97,87 %
21.12.2017 15:00 8,9 C 8,9 C 7,8 C 100 % 15 lf 1032,0 hPa 0,0 l/m 0 min 0 min 19 W/m 6,8 km/h (2 Bft) 97,87 %
21.12.2017 15:02 8,9 C 8,9 C 7,8 C 100 % 15 lf 1032,0 hPa 0,0 l/m 0 min 0 min 17 W/m 6,8 km/h (2 Bft) 97,87 %
21.12.2017 15:04 8,9 C 8,9 C 7,8 C 100 % 15 lf 1032,0 hPa 0,0 l/m 0 min 0 min 16 W/m 6,8 km/h (2 Bft) 97,83 %
21.12.2017 15:06 8,9 C 8,9 C 7,8 C 100 % 15 lf 1032,0 hPa 0,0 l/m 0 min 0 min 17 W/m 6,8 km/h (2 Bft) 95,74 %
21.12.2017 15:08 8,9 C 8,9 C 7,8 C 100 % 15 lf 1032,0 hPa 0,0 l/m 0 min 0 min 20 W/m 4,5 km/h (1 Bft) 95,74 %
21.12.2017 15:10 8,9 C 8,9 C 7,8 C 100 % 15 lf 1032,0 hPa 0,0 l/m 0 min 0 min 21 W/m 15,8 km/h (3 Bft) 97,87 %
21.12.2017 15:12 8,9 C 8,9 C 7,8 C 100 % 15 lf 1032,0 hPa 0,0 l/m 0 min 0 min 21 W/m 9,0 km/h (2 Bft) 97,87 %
21.12.2017 15:14 8,9 C 8,9 C 7,8 C 100 % 15 lf 1032,0 hPa 0,0 l/m 0 min 0 min 21 W/m 9,0 km/h (2 Bft) 97,87 %
21.12.2017 15:16 8,9 C 8,9 C 7,8 C 100 % 15 lf 1032,0 hPa 0,0 l/m 0 min 0 min 25 W/m 13,5 km/h (3 Bft) 97,83 %
21.12.2017 15:18 8,9 C 8,9 C 7,8 C 100 % 15 lf 1032,1 hPa 0,0 l/m 0 min 0 min 28 W/m 9,0 km/h (2 Bft) 95,74 %
21.12.2017 15:20 8,9 C 8,9 C 7,8 C 100 % 15 lf 1032,1 hPa 0,0 l/m 0 min 0 min 25 W/m 11,3 km/h (2 Bft) 97,87 %
21.12.2017 15:22 8,9 C 8,9 C 7,8 C 100 % 15 lf 1032,1 hPa 0,0 l/m 0 min 0 min 21 W/m 13,5 km/h (3 Bft) 95,74 %
21.12.2017 15:24 8,9 C 8,9 C 7,8 C 100 % 15 lf 1032,1 hPa 0,0 l/m 0 min 0 min 21 W/m 9,0 km/h (2 Bft) 95,74 %
21.12.2017 15:26 8,9 C 8,9 C 7,8 C 100 % 15 lf 1032,1 hPa 0,0 l/m 0 min 0 min 24 W/m 6,8 km/h (2 Bft) 93,48 %
21.12.2017 15:28 8,9 C 8,9 C 7,8 C 100 % 15 lf 1032,2 hPa 0,0 l/m 0 min 0 min 22 W/m 11,3 km/h (2 Bft) 95,74 %
21.12.2017 15:30 8,9 C 8,9 C 7,8 C 100 % 15 lf 1032,2 hPa 0,0 l/m 0 min 0 min 23 W/m 9,0 km/h (2 Bft) 95,74 %
21.12.2017 15:32 8,9 C 8,9 C 7,8 C 100 % 15 lf 1032,2 hPa 0,0 l/m 0 min 0 min 18 W/m 9,0 km/h (2 Bft) 93,62 %
21.12.2017 15:34 8,9 C 8,9 C 7,8 C 100 % 15 lf 1032,3 hPa 0,0 l/m 0 min 0 min 16 W/m 9,0 km/h (2 Bft) 95,74 %
21.12.2017 15:36 8,9 C 8,9 C 7,8 C 100 % 15 lf 1032,3 hPa 0,0 l/m 0 min 0 min 13 W/m 11,3 km/h (2 Bft) 95,74 %
21.12.2017 15:38 8,9 C 8,9 C 7,8 C 100 % 15 lf 1032,3 hPa 0,0 l/m 0 min 0 min 13 W/m 13,5 km/h (3 Bft) 93,48 %
21.12.2017 15:40 8,9 C 8,9 C 7,8 C 100 % 15 lf 1032,4 hPa 0,0 l/m 0 min 0 min 13 W/m 13,5 km/h (3 Bft) 91,49 %
21.12.2017 15:42 8,9 C 8,9 C 7,8 C 100 % 15 lf 1032,3 hPa 0,0 l/m 0 min 0 min 12 W/m 11,3 km/h (2 Bft) 91,49 %
21.12.2017 15:44 8,9 C 8,9 C 7,8 C 100 % 15 lf 1032,4 hPa 0,0 l/m 0 min 0 min 11 W/m 11,3 km/h (2 Bft) 91,49 %
21.12.2017 15:46 8,9 C 8,9 C 7,8 C 100 % 15 lf 1032,4 hPa 0,0 l/m 0 min 0 min 9 W/m 6,8 km/h (2 Bft) 97,87 %
21.12.2017 15:48 8,9 C 8,9 C 7,8 C 100 % 15 lf 1032,4 hPa 0,0 l/m 0 min 0 min 7 W/m 20,3 km/h (4 Bft) 97,87 %
21.12.2017 15:50 8,9 C 8,9 C 7,8 C 100 % 15 lf 1032,5 hPa 0,0 l/m 0 min 0 min 7 W/m 13,5 km/h (3 Bft) 95,65 %
21.12.2017 15:52 8,9 C 8,9 C 7,8 C 100 % 15 lf 1032,3 hPa 0,0 l/m 0 min 0 min 7 W/m 9,0 km/h (2 Bft) 97,87 %
21.12.2017 15:54 8,9 C 8,9 C 7,8 C 100 % 15 lf 1032,4 hPa 0,0 l/m 0 min 0 min 5 W/m 9,0 km/h (2 Bft) 93,62 %
21.12.2017 15:56 8,9 C 8,9 C 7,8 C 100 % 15 lf 1032,3 hPa 0,0 l/m 0 min 0 min 5 W/m 9,0 km/h (2 Bft) 100,00 %
21.12.2017 15:58 8,9 C 8,9 C 7,8 C 100 % 15 lf 1032,3 hPa 0,0 l/m 0 min 0 min 5 W/m 9,0 km/h (2 Bft) 97,87 %
21.12.2017 16:00 8,9 C 8,9 C 7,8 C 100 % 15 lf 1032,3 hPa 0,0 l/m 0 min 0 min 5 W/m 13,5 km/h (3 Bft) 97,87 %
21.12.2017 16:02 8,9 C 8,9 C 7,8 C 100 % 15 lf 1032,3 hPa 0,0 l/m 0 min 0 min 5 W/m 15,8 km/h (3 Bft) 100,00 %
21.12.2017 16:04 8,9 C 8,9 C 7,8 C 100 % 15 lf 1032,4 hPa 0,0 l/m 0 min 0 min 5 W/m 11,3 km/h (2 Bft) 97,87 %
21.12.2017 16:06 8,9 C 8,9 C 7,8 C 100 % 15 lf 1032,4 hPa 0,0 l/m 0 min 0 min 5 W/m 11,3 km/h (2 Bft) 100,00 %
21.12.2017 16:08 8,9 C 8,9 C 7,8 C 100 % 15 lf 1032,6 hPa 0,0 l/m 0 min 0 min 1 W/m 11,3 km/h (2 Bft) 95,74 %
21.12.2017 16:10 8,9 C 8,9 C 7,8 C 100 % 15 lf 1032,6 hPa 0,0 l/m 0 min 0 min 0 W/m 9,0 km/h (2 Bft) 97,87 %
21.12.2017 16:12 8,9 C 8,9 C 7,8 C 100 % 15 lf 1032,7 hPa 0,0 l/m 0 min 0 min 0 W/m 11,3 km/h (2 Bft) 97,87 %
21.12.2017 16:14 8,9 C 8,9 C 7,8 C 100 % 15 lf 1032,6 hPa 0,0 l/m 0 min 0 min 0 W/m 11,3 km/h (2 Bft) 95,65 %
21.12.2017 16:16 8,9 C 8,9 C 7,8 C 100 % 15 lf 1032,6 hPa 0,0 l/m 0 min 0 min 0 W/m 9,0 km/h (2 Bft) 95,74 %
21.12.2017 16:18 8,9 C 8,9 C 7,8 C 100 % 15 lf 1032,7 hPa 0,0 l/m 0 min 0 min 0 W/m 9,0 km/h (2 Bft) 95,74 %
21.12.2017 16:20 8,9 C 8,9 C 7,8 C 100 % 15 lf 1032,6 hPa 0,0 l/m 0 min 0 min 0 W/m 9,0 km/h (2 Bft) 97,87 %
21.12.2017 16:22 8,9 C 8,9 C 7,8 C 100 % 15 lf 1032,7 hPa 0,0 l/m 0 min 0 min 0 W/m 9,0 km/h (2 Bft) 97,87 %
21.12.2017 16:24 8,9 C 8,9 C 7,8 C 100 % 15 lf 1032,6 hPa 0,0 l/m 0 min 0 min 0 W/m 6,8 km/h (2 Bft) 95,74 %
21.12.2017 16:26 8,9 C 8,9 C 7,8 C 100 % 15 lf 1032,6 hPa 0,0 l/m 0 min 0 min 0 W/m 11,3 km/h (2 Bft) 95,65 %
21.12.2017 16:28 8,9 C 8,9 C 7,8 C 100 % 15 lf 1032,6 hPa 0,0 l/m 0 min 0 min 0 W/m 11,3 km/h (2 Bft) 95,74 %
21.12.2017 16:30 8,9 C 8,9 C 7,8 C 100 % 15 lf 1032,7 hPa 0,0 l/m 0 min 0 min 0 W/m 9,0 km/h (2 Bft) 95,74 %
21.12.2017 16:32 8,8 C 8,9 C 7,8 C 100 % 15 lf 1032,6 hPa 0,0 l/m 0 min 0 min 0 W/m 9,0 km/h (2 Bft) 97,87 %
21.12.2017 16:34 8,9 C 8,9 C 7,8 C 100 % 15 lf 1032,6 hPa 0,0 l/m 0 min 0 min 0 W/m 6,8 km/h (2 Bft) 93,62 %
21.12.2017 16:36 8,9 C 8,9 C 7,8 C 100 % 15 lf 1032,7 hPa 0,0 l/m 0 min 0 min 0 W/m 9,0 km/h (2 Bft) 91,49 %
21.12.2017 16:38 8,9 C 8,9 C 7,8 C 100 % 15 lf 1032,7 hPa 0,0 l/m 0 min 0 min 0 W/m 9,0 km/h (2 Bft) 93,48 %
21.12.2017 16:40 8,8 C 8,9 C 7,8 C 100 % 15 lf 1032,7 hPa 0,0 l/m 0 min 0 min 0 W/m 6,8 km/h (2 Bft) 95,74 %
21.12.2017 16:42 8,8 C 8,9 C 7,8 C 100 % 15 lf 1032,7 hPa 0,0 l/m 0 min 0 min 0 W/m 9,0 km/h (2 Bft) 95,74 %
21.12.2017 16:44 8,9 C 8,9 C 7,8 C 100 % 15 lf 1032,8 hPa 0,0 l/m 0 min 0 min 0 W/m 6,8 km/h (2 Bft) 91,49 %
21.12.2017 16:46 8,9 C 8,9 C 7,8 C 100 % 15 lf 1032,9 hPa 0,0 l/m 0 min 0 min 0 W/m 11,3 km/h (2 Bft) 95,74 %
21.12.2017 16:48 8,9 C 8,9 C 7,8 C 100 % 15 lf 1032,9 hPa 0,0 l/m 0 min 0 min 0 W/m 11,3 km/h (2 Bft) 89,13 %
21.12.2017 16:50 8,8 C 8,9 C 7,8 C 100 % 15 lf 1032,9 hPa 0,0 l/m 0 min 0 min 0 W/m 11,3 km/h (2 Bft) 93,62 %
21.12.2017 16:52 8,8 C 8,9 C 7,8 C 100 % 15 lf 1032,9 hPa 0,0 l/m 0 min 0 min 0 W/m 11,3 km/h (2 Bft) 95,74 %
21.12.2017 16:54 8,8 C 8,9 C 7,8 C 100 % 15 lf 1032,9 hPa 0,0 l/m 0 min 0 min 0 W/m 11,3 km/h (2 Bft) 93,62 %
21.12.2017 16:56 8,8 C 8,9 C 7,8 C 100 % 15 lf 1033,0 hPa 0,0 l/m 0 min 0 min 0 W/m 9,0 km/h (2 Bft) 91,49 %
21.12.2017 16:58 8,8 C 8,9 C 7,8 C 100 % 15 lf 1033,0 hPa 0,0 l/m 0 min 0 min 0 W/m 11,3 km/h (2 Bft) 97,87 %
21.12.2017 17:00 8,8 C 8,9 C 7,8 C 100 % 15 lf 1033,0 hPa 0,0 l/m 0 min 0 min 0 W/m 6,8 km/h (2 Bft) 97,83 %
21.12.2017 17:02 8,8 C 8,9 C 7,8 C 100 % 15 lf 1033,0 hPa 0,0 l/m 0 min 0 min 0 W/m 6,8 km/h (2 Bft) 95,74 %
21.12.2017 17:04 8,8 C 8,9 C 7,8 C 100 % 15 lf 1033,1 hPa 0,0 l/m 0 min 0 min 0 W/m 6,8 km/h (2 Bft) 97,87 %
21.12.2017 17:06 8,8 C 8,9 C 7,8 C 100 % 15 lf 1033,1 hPa 0,0 l/m 0 min 0 min 0 W/m 13,5 km/h (3 Bft) 93,62 %
21.12.2017 17:08 8,8 C 8,9 C 7,8 C 100 % 15 lf 1033,0 hPa 0,0 l/m 0 min 0 min 0 W/m 9,0 km/h (2 Bft) 97,87 %
21.12.2017 17:10 8,8 C 8,9 C 7,8 C 100 % 15 lf 1033,1 hPa 0,0 l/m 0 min 0 min 0 W/m 6,8 km/h (2 Bft) 95,74 %
21.12.2017 17:12 8,8 C 8,9 C 7,8 C 100 % 15 lf 1033,1 hPa 0,0 l/m 0 min 0 min 0 W/m 9,0 km/h (2 Bft) 95,65 %
21.12.2017 17:14 8,8 C 8,3 C 7,8 C 100 % 15 lf 1033,1 hPa 0,0 l/m 0 min 0 min 0 W/m 9,0 km/h (2 Bft) 97,87 %
21.12.2017 17:16 8,8 C 8,3 C 7,8 C 100 % 15 lf 1033,1 hPa 0,0 l/m 0 min 0 min 0 W/m 9,0 km/h (2 Bft) 95,74 %
21.12.2017 17:18 8,8 C 8,3 C 7,8 C 100 % 15 lf 1033,0 hPa 0,0 l/m 0 min 0 min 0 W/m 6,8 km/h (2 Bft) 95,74 %
21.12.2017 17:20 8,8 C 8,3 C 7,8 C 100 % 15 lf 1033,1 hPa 0,0 l/m 0 min 0 min 0 W/m 6,8 km/h (2 Bft) 95,74 %
21.12.2017 17:22 8,8 C 8,3 C 7,8 C 100 % 15 lf 1033,1 hPa 0,0 l/m 0 min 0 min 0 W/m 4,5 km/h (1 Bft) 97,87 %
21.12.2017 17:24 8,8 C 8,3 C 7,8 C 100 % 15 lf 1033,1 hPa 0,0 l/m 0 min 0 min 0 W/m 4,5 km/h (1 Bft) 97,83 %
21.12.2017 17:26 8,8 C 8,3 C 7,8 C 100 % 15 lf 1033,1 hPa 0,0 l/m 0 min 0 min 0 W/m 6,8 km/h (2 Bft) 100,00 %
21.12.2017 17:28 8,8 C 8,3 C 7,8 C 100 % 15 lf 1033,1 hPa 0,0 l/m 0 min 0 min 0 W/m 4,5 km/h (1 Bft) 97,87 %
21.12.2017 17:30 8,8 C 8,3 C 7,2 C 100 % 15 lf 1033,1 hPa 0,0 l/m 0 min 0 min 0 W/m 11,3 km/h (2 Bft) 97,87 %
21.12.2017 17:32 8,8 C 8,3 C 7,8 C 100 % 15 lf 1033,1 hPa 0,0 l/m 0 min 0 min 0 W/m 4,5 km/h (1 Bft) 95,74 %
21.12.2017 17:34 8,8 C 8,3 C 7,8 C 100 % 15 lf 1033,1 hPa 0,0 l/m 0 min 0 min 0 W/m 4,5 km/h (1 Bft) 97,87 %
21.12.2017 17:36 8,8 C 8,3 C 7,2 C 100 % 15 lf 1033,1 hPa 0,0 l/m 0 min 0 min 0 W/m 6,8 km/h (2 Bft) 97,83 %
21.12.2017 17:38 8,8 C 8,3 C 7,2 C 100 % 15 lf 1033,1 hPa 0,0 l/m 0 min 0 min 0 W/m 9,0 km/h (2 Bft) 95,74 %
21.12.2017 17:40 8,8 C 8,3 C 7,2 C 100 % 15 lf 1033,1 hPa 0,0 l/m 0 min 0 min 0 W/m 6,8 km/h (2 Bft) 97,87 %
21.12.2017 17:42 8,8 C 8,3 C 7,2 C 100 % 15 lf 1033,1 hPa 0,0 l/m 0 min 0 min 0 W/m 11,3 km/h (2 Bft) 97,87 %
21.12.2017 17:44 8,8 C 8,3 C 7,8 C 100 % 15 lf 1033,2 hPa 0,0 l/m 0 min 0 min 0 W/m 11,3 km/h (2 Bft) 95,74 %
21.12.2017 17:46 8,8 C 8,3 C 7,8 C 100 % 15 lf 1033,2 hPa 0,0 l/m 0 min 0 min 0 W/m 6,8 km/h (2 Bft) 97,83 %
21.12.2017 17:48 8,8 C 8,3 C 7,8 C 100 % 15 lf 1033,2 hPa 0,0 l/m 0 min 0 min 0 W/m 9,0 km/h (2 Bft) 93,62 %
21.12.2017 17:50 8,8 C 8,3 C 7,8 C 100 % 15 lf 1033,2 hPa 0,0 l/m 0 min 0 min 0 W/m 6,8 km/h (2 Bft) 91,49 %
21.12.2017 17:52 8,8 C 8,3 C 7,8 C 100 % 15 lf 1033,2 hPa 0,0 l/m 0 min 0 min 0 W/m 6,8 km/h (2 Bft) 95,74 %
21.12.2017 17:54 8,8 C 8,3 C 7,8 C 100 % 15 lf 1033,2 hPa 0,0 l/m 0 min 0 min 0 W/m 9,0 km/h (2 Bft) 97,87 %
21.12.2017 17:56 8,8 C 8,3 C 7,8 C 100 % 15 lf 1033,2 hPa 0,0 l/m 0 min 0 min 0 W/m 11,3 km/h (2 Bft) 95,74 %
21.12.2017 17:58 8,8 C 8,3 C 7,8 C 100 % 15 lf 1033,2 hPa 0,0 l/m 0 min 0 min 0 W/m 6,8 km/h (2 Bft) 100,00 %
21.12.2017 18:00 8,8 C 8,3 C 7,8 C 100 % 15 lf 1033,2 hPa 0,0 l/m 0 min 0 min 0 W/m 6,8 km/h (2 Bft) 95,74 %
21.12.2017 18:02 8,8 C 8,3 C 7,8 C 100 % 15 lf 1033,3 hPa 0,0 l/m 0 min 0 min 0 W/m 9,0 km/h (2 Bft) 100,00 %
21.12.2017 18:04 8,8 C 8,3 C 7,8 C 100 % 15 lf 1033,2 hPa 0,0 l/m 0 min 0 min 0 W/m 9,0 km/h (2 Bft) 100,00 %
21.12.2017 18:06 8,8 C 8,3 C 7,2 C 100 % 15 lf 1033,2 hPa 0,0 l/m 0 min 0 min 0 W/m 6,8 km/h (2 Bft) 100,00 %
21.12.2017 18:10 8,8 C 8,3 C 7,8 C 100 % 15 lf 1033,2 hPa 0,0 l/m 0 min 0 min 0 W/m 6,8 km/h (2 Bft) 100,00 %
21.12.2017 18:12 8,8 C 8,3 C 7,8 C 100 % 15 lf 1033,2 hPa 0,0 l/m 0 min 0 min 0 W/m 6,8 km/h (2 Bft) 97,87 %
21.12.2017 18:14 8,8 C 8,3 C 7,8 C 100 % 15 lf 1033,2 hPa 0,0 l/m 0 min 0 min 0 W/m 6,8 km/h (2 Bft) 91,49 %
21.12.2017 18:16 8,8 C 8,3 C 7,8 C 100 % 15 lf 1033,1 hPa 0,0 l/m 0 min 0 min 0 W/m 6,8 km/h (2 Bft) 95,65 %
21.12.2017 18:18 8,8 C 8,3 C 7,8 C 100 % 15 lf 1033,2 hPa 0,0 l/m 0 min 0 min 0 W/m 6,8 km/h (2 Bft) 97,87 %
21.12.2017 18:20 8,8 C 8,3 C 7,8 C 100 % 15 lf 1033,2 hPa 0,0 l/m 0 min 0 min 0 W/m 9,0 km/h (2 Bft) 98,31 %
21.12.2017 18:22 8,8 C 8,3 C 7,2 C 100 % 15 lf 1033,3 hPa 0,0 l/m 0 min 0 min 0 W/m 6,8 km/h (2 Bft) 95,74 %
21.12.2017 18:24 8,8 C 8,3 C 7,8 C 100 % 15 lf 1033,2 hPa 0,0 l/m 0 min 0 min 0 W/m 6,8 km/h (2 Bft) 97,14 %
21.12.2017 18:26 8,8 C 8,3 C 7,8 C 100 % 15 lf 1033,2 hPa 0,0 l/m 0 min 0 min 0 W/m 11,3 km/h (2 Bft) 95,74 %
21.12.2017 18:28 8,8 C 8,3 C 7,8 C 100 % 15 lf 1033,2 hPa 0,0 l/m 0 min 0 min 0 W/m 11,3 km/h (2 Bft) 95,65 %
21.12.2017 18:30 8,8 C 8,3 C 7,8 C 100 % 15 lf 1033,3 hPa 0,0 l/m 0 min 0 min 0 W/m 11,3 km/h (2 Bft) 95,74 %
21.12.2017 18:32 8,8 C 8,3 C 7,8 C 100 % 15 lf 1033,3 hPa 0,0 l/m 0 min 0 min 0 W/m 11,3 km/h (2 Bft) 95,74 %
21.12.2017 18:34 8,8 C 8,3 C 7,8 C 100 % 15 lf 1033,3 hPa 0,0 l/m 0 min 0 min 0 W/m 11,3 km/h (2 Bft) 97,87 %
21.12.2017 18:36 8,8 C 8,3 C 7,8 C 100 % 15 lf 1033,3 hPa 0,0 l/m 0 min 0 min 0 W/m 11,3 km/h (2 Bft) 95,74 %
21.12.2017 18:38 8,8 C 8,9 C 7,8 C 100 % 15 lf 1033,3 hPa 0,0 l/m 0 min 0 min 0 W/m 11,3 km/h (2 Bft) 97,87 %
21.12.2017 18:40 8,8 C 8,9 C 7,8 C 100 % 15 lf 1033,3 hPa 0,0 l/m 0 min 0 min 0 W/m 9,0 km/h (2 Bft) 95,65 %
21.12.2017 18:42 8,8 C 8,9 C 7,8 C 100 % 15 lf 1033,4 hPa 0,0 l/m 0 min 0 min 0 W/m 11,3 km/h (2 Bft) 97,87 %
21.12.2017 18:44 8,8 C 8,3 C 7,8 C 100 % 15 lf 1033,4 hPa 0,0 l/m 0 min 0 min 0 W/m 9,0 km/h (2 Bft) 95,74 %
21.12.2017 18:46 8,8 C 8,3 C 7,8 C 100 % 15 lf 1033,3 hPa 0,0 l/m 0 min 0 min 0 W/m 6,8 km/h (2 Bft) 97,87 %
21.12.2017 18:48 8,8 C 8,3 C 7,8 C 100 % 15 lf 1033,3 hPa 0,0 l/m 0 min 0 min 0 W/m 6,8 km/h (2 Bft) 95,74 %
21.12.2017 18:50 8,8 C 8,3 C 7,8 C 100 % 15 lf 1033,3 hPa 0,0 l/m 0 min 0 min 0 W/m 6,8 km/h (2 Bft) 94,83 %
21.12.2017 18:52 8,8 C 8,3 C 7,8 C 100 % 15 lf 1033,3 hPa 0,0 l/m 0 min 0 min 0 W/m 9,0 km/h (2 Bft) 97,87 %
21.12.2017 18:54 8,8 C 8,3 C 7,8 C 100 % 15 lf 1033,3 hPa 0,0 l/m 0 min 0 min 0 W/m 6,8 km/h (2 Bft) 97,14 %
21.12.2017 18:56 8,8 C 8,3 C 7,8 C 100 % 15 lf 1033,3 hPa 0,0 l/m 0 min 0 min 0 W/m 4,5 km/h (1 Bft) 95,74 %
21.12.2017 18:58 8,8 C 8,3 C 7,8 C 100 % 15 lf 1033,4 hPa 0,0 l/m 0 min 0 min 0 W/m 9,0 km/h (2 Bft) 97,87 %
21.12.2017 19:00 8,8 C 8,3 C 7,8 C 100 % 15 lf 1033,3 hPa 0,0 l/m 0 min 0 min 0 W/m 6,8 km/h (2 Bft) 95,74 %
21.12.2017 19:02 8,8 C 8,3 C 7,8 C 100 % 15 lf 1033,3 hPa 0,0 l/m 0 min 0 min 0 W/m 9,0 km/h (2 Bft) 93,48 %
21.12.2017 19:04 8,8 C 8,3 C 7,2 C 100 % 15 lf 1033,3 hPa 0,0 l/m 0 min 0 min 0 W/m 6,8 km/h (2 Bft) 91,49 %
21.12.2017 19:06 8,8 C 8,3 C 7,2 C 100 % 15 lf 1033,3 hPa 0,0 l/m 0 min 0 min 0 W/m 6,8 km/h (2 Bft) 95,74 %
21.12.2017 19:08 8,8 C 8,3 C 7,2 C 100 % 15 lf 1033,4 hPa 0,0 l/m 0 min 0 min 0 W/m 6,8 km/h (2 Bft) 93,62 %
21.12.2017 19:10 8,8 C 8,3 C 7,2 C 100 % 15 lf 1033,3 hPa 0,0 l/m 0 min 0 min 0 W/m 11,3 km/h (2 Bft) 93,62 %
21.12.2017 19:12 8,8 C 8,3 C 7,8 C 100 % 15 lf 1033,3 hPa 0,0 l/m 0 min 0 min 0 W/m 9,0 km/h (2 Bft) 93,62 %
21.12.2017 19:14 8,8 C 8,3 C 7,8 C 100 % 15 lf 1033,3 hPa 0,0 l/m 0 min 0 min 0 W/m 9,0 km/h (2 Bft) 93,48 %
21.12.2017 19:16 8,8 C 8,3 C 7,8 C 100 % 15 lf 1033,3 hPa 0,0 l/m 0 min 0 min 0 W/m 11,3 km/h (2 Bft) 93,62 %
21.12.2017 19:18 8,8 C 8,3 C 7,8 C 100 % 15 lf 1033,3 hPa 0,0 l/m 0 min 0 min 0 W/m 11,3 km/h (2 Bft) 91,49 %
21.12.2017 19:20 8,8 C 8,3 C 7,8 C 100 % 15 lf 1033,3 hPa 0,0 l/m 0 min 0 min 0 W/m 9,0 km/h (2 Bft) 91,49 %
21.12.2017 19:22 8,8 C 8,3 C 7,8 C 100 % 15 lf 1033,3 hPa 0,0 l/m 0 min 0 min 0 W/m 9,0 km/h (2 Bft) 91,49 %
21.12.2017 19:24 8,8 C 8,3 C 7,8 C 100 % 15 lf 1033,3 hPa 0,0 l/m 0 min 0 min 0 W/m 11,3 km/h (2 Bft) 89,36 %
21.12.2017 19:26 8,8 C 8,3 C 7,8 C 100 % 15 lf 1033,3 hPa 0,0 l/m 0 min 0 min 0 W/m 9,0 km/h (2 Bft) 93,48 %
21.12.2017 19:28 8,8 C 8,3 C 7,8 C 100 % 15 lf 1033,3 hPa 0,0 l/m 0 min 0 min 0 W/m 11,3 km/h (2 Bft) 89,36 %
21.12.2017 19:30 8,8 C 8,3 C 7,8 C 100 % 15 lf 1033,2 hPa 0,0 l/m 0 min 0 min 0 W/m 9,0 km/h (2 Bft) 93,62 %
21.12.2017 19:32 8,8 C 8,3 C 7,8 C 100 % 15 lf 1033,3 hPa 0,0 l/m 0 min 0 min 0 W/m 6,8 km/h (2 Bft) 91,49 %
21.12.2017 19:34 8,8 C 8,3 C 7,8 C 100 % 15 lf 1033,3 hPa 0,0 l/m 0 min 0 min 0 W/m 9,0 km/h (2 Bft) 93,62 %
21.12.2017 19:36 8,8 C 8,3 C 7,8 C 100 % 15 lf 1033,3 hPa 0,0 l/m 0 min 0 min 0 W/m 11,3 km/h (2 Bft) 92,31 %
21.12.2017 19:38 8,8 C 8,3 C 7,8 C 100 % 15 lf 1033,4 hPa 0,0 l/m 0 min 0 min 0 W/m 11,3 km/h (2 Bft) 90,24 %
21.12.2017 19:40 8,8 C 8,3 C 7,8 C 100 % 15 lf 1033,4 hPa 0,0 l/m 0 min 0 min 0 W/m 9,0 km/h (2 Bft) 95,74 %
21.12.2017 19:42 8,8 C 8,3 C 7,8 C 100 % 15 lf 1033,4 hPa 0,0 l/m 0 min 0 min 0 W/m 9,0 km/h (2 Bft) 91,49 %
21.12.2017 19:44 8,8 C 8,3 C 7,8 C 100 % 15 lf 1033,4 hPa 0,0 l/m 0 min 0 min 0 W/m 6,8 km/h (2 Bft) 95,74 %
21.12.2017 19:46 8,8 C 8,3 C 7,8 C 100 % 15 lf 1033,5 hPa 0,0 l/m 0 min 0 min 0 W/m 6,8 km/h (2 Bft) 93,62 %
21.12.2017 19:48 8,8 C 8,3 C 7,8 C 100 % 15 lf 1033,5 hPa 0,0 l/m 0 min 0 min 0 W/m 6,8 km/h (2 Bft) 93,62 %
21.12.2017 19:50 8,8 C 8,3 C 7,8 C 100 % 15 lf 1033,5 hPa 0,0 l/m 0 min 0 min 0 W/m 6,8 km/h (2 Bft) 94,23 %
21.12.2017 19:52 8,8 C 8,3 C 7,8 C 100 % 15 lf 1033,6 hPa 0,0 l/m 0 min 0 min 0 W/m 4,5 km/h (1 Bft) 95,12 %
21.12.2017 19:54 8,8 C 8,3 C 7,8 C 100 % 15 lf 1033,5 hPa 0,0 l/m 0 min 0 min 0 W/m 6,8 km/h (2 Bft) 93,62 %
21.12.2017 19:56 8,8 C 8,3 C 7,2 C 100 % 15 lf 1033,6 hPa 0,0 l/m 0 min 0 min 0 W/m 4,5 km/h (1 Bft) 93,62 %
21.12.2017 19:58 8,8 C 8,3 C 7,2 C 100 % 15 lf 1033,6 hPa 0,0 l/m 0 min 0 min 0 W/m 4,5 km/h (1 Bft) 95,74 %
21.12.2017 20:00 8,8 C 8,3 C 7,2 C 100 % 15 lf 1033,6 hPa 0,0 l/m 0 min 0 min 0 W/m 6,8 km/h (2 Bft) 95,65 %
21.12.2017 20:02 8,8 C 8,3 C 7,2 C 100 % 15 lf 1033,6 hPa 0,0 l/m 0 min 0 min 0 W/m 6,8 km/h (2 Bft) 100,00 %
21.12.2017 20:04 8,8 C 8,3 C 7,2 C 100 % 15 lf 1033,5 hPa 0,0 l/m 0 min 0 min 0 W/m 9,0 km/h (2 Bft) 100,00 %
21.12.2017 20:06 8,7 C 8,3 C 7,2 C 100 % 15 lf 1033,5 hPa 0,0 l/m 0 min 0 min 0 W/m 6,8 km/h (2 Bft) 98,11 %
21.12.2017 20:08 8,8 C 8,3 C 7,2 C 100 % 15 lf 1033,5 hPa 0,0 l/m 0 min 0 min 0 W/m 9,0 km/h (2 Bft) 100,00 %
21.12.2017 20:10 8,7 C 8,3 C 7,2 C 100 % 15 lf 1033,6 hPa 0,0 l/m 0 min 0 min 0 W/m 6,8 km/h (2 Bft) 97,87 %
21.12.2017 20:12 8,8 C 8,3 C 7,2 C 100 % 15 lf 1033,6 hPa 0,0 l/m 0 min 0 min 0 W/m 4,5 km/h (1 Bft) 97,87 %
21.12.2017 20:14 8,8 C 8,3 C 7,2 C 100 % 15 lf 1033,6 hPa 0,0 l/m 0 min 0 min 0 W/m 6,8 km/h (2 Bft) 100,00 %
21.12.2017 20:16 8,7 C 8,3 C 7,8 C 100 % 15 lf 1033,6 hPa 0,0 l/m 0 min 0 min 0 W/m 9,0 km/h (2 Bft) 100,00 %
21.12.2017 20:18 8,8 C 8,3 C 7,2 C 100 % 15 lf 1033,6 hPa 0,0 l/m 0 min 0 min 0 W/m 6,8 km/h (2 Bft) 97,87 %
21.12.2017 20:20 8,8 C 8,3 C 7,8 C 100 % 15 lf 1033,6 hPa 0,0 l/m 0 min 0 min 0 W/m 6,8 km/h (2 Bft) 100,00 %
21.12.2017 20:22 8,8 C 8,3 C 7,8 C 100 % 15 lf 1033,6 hPa 0,0 l/m 0 min 0 min 0 W/m 6,8 km/h (2 Bft) 97,62 %
21.12.2017 20:24 8,7 C 8,3 C 7,8 C 100 % 15 lf 1033,6 hPa 0,0 l/m 0 min 0 min 0 W/m 9,0 km/h (2 Bft) 100,00 %
21.12.2017 20:26 8,8 C 8,3 C 7,8 C 100 % 15 lf 1033,6 hPa 0,0 l/m 0 min 0 min 0 W/m 9,0 km/h (2 Bft) 97,87 %
21.12.2017 20:28 8,8 C 8,3 C 7,8 C 100 % 15 lf 1033,6 hPa 0,0 l/m 0 min 0 min 0 W/m 6,8 km/h (2 Bft) 100,00 %
21.12.2017 20:30 8,8 C 8,3 C 7,8 C 100 % 15 lf 1033,6 hPa 0,0 l/m 0 min 0 min 0 W/m 6,8 km/h (2 Bft) 97,87 %
21.12.2017 20:32 8,7 C 8,3 C 7,8 C 100 % 15 lf 1033,6 hPa 0,0 l/m 0 min 0 min 0 W/m 9,0 km/h (2 Bft) 100,00 %
21.12.2017 20:34 8,8 C 8,3 C 7,2 C 100 % 15 lf 1033,7 hPa 0,0 l/m 0 min 0 min 0 W/m 9,0 km/h (2 Bft) 100,00 %
21.12.2017 20:36 8,8 C 8,3 C 7,2 C 100 % 15 lf 1033,7 hPa 0,0 l/m 0 min 0 min 0 W/m 6,8 km/h (2 Bft) 98,08 %
21.12.2017 20:38 8,8 C 8,3 C 7,2 C 100 % 15 lf 1033,6 hPa 0,0 l/m 0 min 0 min 0 W/m 6,8 km/h (2 Bft) 97,56 %
21.12.2017 20:40 8,8 C 8,3 C 7,2 C 100 % 15 lf 1033,6 hPa 0,0 l/m 0 min 0 min 0 W/m 4,5 km/h (1 Bft) 100,00 %
21.12.2017 20:42 8,7 C 8,3 C 7,2 C 100 % 15 lf 1033,5 hPa 0,0 l/m 0 min 0 min 0 W/m 4,5 km/h (1 Bft) 95,74 %
21.12.2017 20:44 8,7 C 8,3 C 7,2 C 100 % 15 lf 1033,5 hPa 0,0 l/m 0 min 0 min 0 W/m 4,5 km/h (1 Bft) 97,87 %
21.12.2017 20:46 8,8 C 8,3 C 7,2 C 100 % 15 lf 1033,5 hPa 0,0 l/m 0 min 0 min 0 W/m 2,3 km/h (1 Bft) 97,87 %
21.12.2017 20:48 8,7 C 8,3 C 7,2 C 100 % 15 lf 1033,5 hPa 0,0 l/m 0 min 0 min 0 W/m 4,5 km/h (1 Bft) 100,00 %
21.12.2017 20:50 8,7 C 8,3 C 7,2 C 100 % 15 lf 1033,5 hPa 0,0 l/m 0 min 0 min 0 W/m 6,8 km/h (2 Bft) 100,00 %
21.12.2017 20:52 8,7 C 8,3 C 7,2 C 100 % 15 lf 1033,4 hPa 0,0 l/m 0 min 0 min 0 W/m 4,5 km/h (1 Bft) 97,56 %
21.12.2017 20:54 8,7 C 8,3 C 7,2 C 100 % 15 lf 1033,4 hPa 0,0 l/m 0 min 0 min 0 W/m 4,5 km/h (1 Bft) 97,87 %
21.12.2017 20:56 8,7 C 8,3 C 7,2 C 100 % 15 lf 1033,4 hPa 0,0 l/m 0 min 0 min 0 W/m 6,8 km/h (2 Bft) 97,87 %
21.12.2017 20:58 8,7 C 8,3 C 7,2 C 100 % 15 lf 1033,3 hPa 0,0 l/m 0 min 0 min 0 W/m 4,5 km/h (1 Bft) 100,00 %
21.12.2017 21:00 8,7 C 8,3 C 7,2 C 100 % 15 lf 1033,3 hPa 0,0 l/m 0 min 0 min 0 W/m 6,8 km/h (2 Bft) 97,83 %
21.12.2017 21:02 8,7 C 8,3 C 7,2 C 100 % 15 lf 1033,3 hPa 0,0 l/m 0 min 0 min 0 W/m 4,5 km/h (1 Bft) 97,87 %
21.12.2017 21:04 8,7 C 8,3 C 7,2 C 100 % 15 lf 1033,3 hPa 0,0 l/m 0 min 0 min 0 W/m 6,8 km/h (2 Bft) 97,87 %
21.12.2017 21:06 8,7 C 8,3 C 7,2 C 100 % 15 lf 1033,3 hPa 0,0 l/m 0 min 0 min 0 W/m 4,5 km/h (1 Bft) 100,00 %
21.12.2017 21:08 8,7 C 8,3 C 7,2 C 100 % 15 lf 1033,3 hPa 0,0 l/m 0 min 0 min 0 W/m 6,8 km/h (2 Bft) 100,00 %
21.12.2017 21:10 8,7 C 8,3 C 7,2 C 100 % 15 lf 1033,2 hPa 0,0 l/m 0 min 0 min 0 W/m 6,8 km/h (2 Bft) 100,00 %
21.12.2017 21:12 8,7 C 8,3 C 7,2 C 100 % 15 lf 1033,3 hPa 0,0 l/m 0 min 0 min 0 W/m 6,8 km/h (2 Bft) 100,00 %
21.12.2017 21:14 8,7 C 8,3 C 7,2 C 100 % 15 lf 1033,2 hPa 0,0 l/m 0 min 0 min 0 W/m 6,8 km/h (2 Bft) 97,87 %
21.12.2017 21:16 8,7 C 8,3 C 6,7 C 100 % 15 lf 1033,1 hPa 0,0 l/m 0 min 0 min 0 W/m 6,8 km/h (2 Bft) 97,87 %
21.12.2017 21:18 8,7 C 8,3 C 6,7 C 100 % 15 lf 1033,1 hPa 0,0 l/m 0 min 0 min 0 W/m 9,0 km/h (2 Bft) 97,87 %
21.12.2017 21:20 8,6 C 8,3 C 7,2 C 100 % 15 lf 1033,1 hPa 0,0 l/m 0 min 0 min 0 W/m 9,0 km/h (2 Bft) 96,15 %
21.12.2017 21:22 8,6 C 8,3 C 7,2 C 100 % 15 lf 1033,2 hPa 0,0 l/m 0 min 0 min 0 W/m 9,0 km/h (2 Bft) 97,62 %
21.12.2017 21:24 8,6 C 8,3 C 7,2 C 100 % 15 lf 1033,2 hPa 0,0 l/m 0 min 0 min 0 W/m 4,5 km/h (1 Bft) 95,65 %
21.12.2017 21:26 8,6 C 8,3 C 6,7 C 100 % 15 lf 1033,2 hPa 0,0 l/m 0 min 0 min 0 W/m 4,5 km/h (1 Bft) 100,00 %
21.12.2017 21:28 8,6 C 8,3 C 7,2 C 100 % 15 lf 1033,2 hPa 0,0 l/m 0 min 0 min 0 W/m 9,0 km/h (2 Bft) 97,87 %
21.12.2017 21:30 8,6 C 8,3 C 7,2 C 100 % 15 lf 1033,1 hPa 0,0 l/m 0 min 0 min 0 W/m 9,0 km/h (2 Bft) 97,87 %
21.12.2017 21:32 8,6 C 8,3 C 7,2 C 100 % 15 lf 1033,1 hPa 0,0 l/m 0 min 0 min 0 W/m 9,0 km/h (2 Bft) 91,49 %
21.12.2017 21:34 8,6 C 8,3 C 7,2 C 100 % 15 lf 1033,1 hPa 0,0 l/m 0 min 0 min 0 W/m 6,8 km/h (2 Bft) 97,87 %
21.12.2017 21:36 8,6 C 8,3 C 7,2 C 100 % 15 lf 1033,1 hPa 0,0 l/m 0 min 0 min 0 W/m 6,8 km/h (2 Bft) 98,08 %
21.12.2017 21:38 8,6 C 8,3 C 7,2 C 100 % 15 lf 1033,2 hPa 0,0 l/m 0 min 0 min 0 W/m 9,0 km/h (2 Bft) 97,56 %
21.12.2017 21:40 8,6 C 8,3 C 7,2 C 100 % 15 lf 1033,2 hPa 0,0 l/m 0 min 0 min 0 W/m 6,8 km/h (2 Bft) 91,49 %
21.12.2017 21:42 8,6 C 8,3 C 7,2 C 100 % 15 lf 1033,2 hPa 0,0 l/m 0 min 0 min 0 W/m 6,8 km/h (2 Bft) 95,74 %
21.12.2017 21:44 8,6 C 8,3 C 7,2 C 100 % 15 lf 1033,2 hPa 0,0 l/m 0 min 0 min 0 W/m 4,5 km/h (1 Bft) 93,62 %
21.12.2017 21:46 8,6 C 8,3 C 7,2 C 100 % 15 lf 1033,2 hPa 0,0 l/m 0 min 0 min 0 W/m 9,0 km/h (2 Bft) 95,65 %
21.12.2017 21:48 8,6 C 8,3 C 7,2 C 100 % 15 lf 1033,2 hPa 0,0 l/m 0 min 0 min 0 W/m 6,8 km/h (2 Bft) 93,62 %
21.12.2017 21:50 8,6 C 8,3 C 7,2 C 100 % 15 lf 1033,2 hPa 0,0 l/m 0 min 0 min 0 W/m 6,8 km/h (2 Bft) 92,45 %
21.12.2017 21:52 8,6 C 8,3 C 7,2 C 100 % 15 lf 1033,2 hPa 0,0 l/m 0 min 0 min 0 W/m 9,0 km/h (2 Bft) 97,56 %
21.12.2017 21:54 8,5 C 8,3 C 7,2 C 100 % 15 lf 1033,2 hPa 0,0 l/m 0 min 0 min 0 W/m 9,0 km/h (2 Bft) 91,49 %
21.12.2017 21:56 8,6 C 8,3 C 7,2 C 100 % 15 lf 1033,2 hPa 0,0 l/m 0 min 0 min 0 W/m 6,8 km/h (2 Bft) 95,74 %
21.12.2017 21:58 8,6 C 8,3 C 7,2 C 100 % 15 lf 1033,2 hPa 0,0 l/m 0 min 0 min 0 W/m 9,0 km/h (2 Bft) 97,83 %
21.12.2017 22:00 8,5 C 8,3 C 7,2 C 100 % 15 lf 1033,1 hPa 0,0 l/m 0 min 0 min 0 W/m 11,3 km/h (2 Bft) 95,74 %
21.12.2017 22:02 8,6 C 8,3 C 7,2 C 100 % 15 lf 1033,1 hPa 0,0 l/m 0 min 0 min 0 W/m 11,3 km/h (2 Bft) 91,49 %
21.12.2017 22:04 8,6 C 8,3 C 7,2 C 100 % 15 lf 1033,1 hPa 0,0 l/m 0 min 0 min 0 W/m 9,0 km/h (2 Bft) 91,49 %
21.12.2017 22:06 8,6 C 8,3 C 7,2 C 100 % 15 lf 1033,1 hPa 0,0 l/m 0 min 0 min 0 W/m 11,3 km/h (2 Bft) 96,15 %
21.12.2017 22:08 8,6 C 8,3 C 7,2 C 100 % 15 lf 1033,1 hPa 0,0 l/m 0 min 0 min 0 W/m 6,8 km/h (2 Bft) 92,86 %
21.12.2017 22:10 8,6 C 8,3 C 7,2 C 100 % 15 lf 1033,1 hPa 0,0 l/m 0 min 0 min 0 W/m 11,3 km/h (2 Bft) 93,48 %
21.12.2017 22:12 8,6 C 8,3 C 7,2 C 100 % 15 lf 1033,2 hPa 0,0 l/m 0 min 0 min 0 W/m 13,5 km/h (3 Bft) 93,62 %
21.12.2017 22:14 8,6 C 8,3 C 7,2 C 100 % 15 lf 1033,2 hPa 0,0 l/m 0 min 0 min 0 W/m 9,0 km/h (2 Bft) 93,62 %
21.12.2017 22:16 8,6 C 8,3 C 7,2 C 100 % 15 lf 1033,2 hPa 0,0 l/m 0 min 0 min 0 W/m 6,8 km/h (2 Bft) 93,62 %
21.12.2017 22:18 8,6 C 8,3 C 7,2 C 100 % 15 lf 1033,2 hPa 0,0 l/m 0 min 0 min 0 W/m 11,3 km/h (2 Bft) 91,49 %
21.12.2017 22:20 8,6 C 8,3 C 7,2 C 100 % 15 lf 1033,2 hPa 0,0 l/m 0 min 0 min 0 W/m 11,3 km/h (2 Bft) 93,62 %
21.12.2017 22:22 8,6 C 8,3 C 7,2 C 100 % 15 lf 1033,2 hPa 0,0 l/m 0 min 0 min 0 W/m 13,5 km/h (3 Bft) 93,48 %
21.12.2017 22:24 8,6 C 8,3 C 7,2 C 100 % 15 lf 1033,2 hPa 0,0 l/m 0 min 0 min 0 W/m 9,0 km/h (2 Bft) 93,62 %
21.12.2017 22:26 8,6 C 8,3 C 7,2 C 100 % 15 lf 1033,2 hPa 0,0 l/m 0 min 0 min 0 W/m 6,8 km/h (2 Bft) 91,49 %
21.12.2017 22:28 8,6 C 8,3 C 7,2 C 100 % 15 lf 1033,2 hPa 0,0 l/m 0 min 0 min 0 W/m 11,3 km/h (2 Bft) 91,49 %
21.12.2017 22:30 8,6 C 8,3 C 7,2 C 100 % 15 lf 1033,2 hPa 0,0 l/m 0 min 0 min 0 W/m 11,3 km/h (2 Bft) 91,49 %
21.12.2017 22:32 8,6 C 8,3 C 7,2 C 100 % 15 lf 1033,2 hPa 0,0 l/m 0 min 0 min 0 W/m 15,8 km/h (3 Bft) 93,48 %
21.12.2017 22:34 8,6 C 8,3 C 7,2 C 100 % 15 lf 1033,2 hPa 0,0 l/m 0 min 0 min 0 W/m 13,5 km/h (3 Bft) 93,62 %
21.12.2017 22:36 8,6 C 8,3 C 7,2 C 100 % 15 lf 1033,2 hPa 0,0 l/m 0 min 0 min 0 W/m 11,3 km/h (2 Bft) 94,34 %
21.12.2017 22:38 8,6 C 8,3 C 7,2 C 100 % 15 lf 1033,2 hPa 0,0 l/m 0 min 0 min 0 W/m 11,3 km/h (2 Bft) 97,56 %
21.12.2017 22:40 8,6 C 8,3 C 7,2 C 100 % 15 lf 1033,2 hPa 0,0 l/m 0 min 0 min 0 W/m 13,5 km/h (3 Bft) 93,62 %
21.12.2017 22:42 8,6 C 8,3 C 7,2 C 100 % 15 lf 1033,2 hPa 0,0 l/m 0 min 0 min 0 W/m 9,0 km/h (2 Bft) 95,74 %
21.12.2017 22:44 8,6 C 8,3 C 7,2 C 100 % 15 lf 1033,2 hPa 0,0 l/m 0 min 0 min 0 W/m 4,5 km/h (1 Bft) 95,74 %
21.12.2017 22:46 8,5 C 8,3 C 7,2 C 100 % 15 lf 1033,2 hPa 0,0 l/m 0 min 0 min 0 W/m 6,8 km/h (2 Bft) 95,65 %
21.12.2017 22:48 8,5 C 8,3 C 7,2 C 100 % 15 lf 1033,2 hPa 0,0 l/m 0 min 0 min 0 W/m 9,0 km/h (2 Bft) 97,87 %
21.12.2017 22:50 8,6 C 8,3 C 7,2 C 100 % 15 lf 1033,1 hPa 0,0 l/m 0 min 0 min 0 W/m 4,5 km/h (1 Bft) 96,23 %
21.12.2017 22:52 8,5 C 8,3 C 7,2 C 100 % 15 lf 1033,1 hPa 0,0 l/m 0 min 0 min 0 W/m 6,8 km/h (2 Bft) 95,12 %
21.12.2017 22:54 8,5 C 8,3 C 7,2 C 100 % 15 lf 1033,1 hPa 0,0 l/m 0 min 0 min 0 W/m 6,8 km/h (2 Bft) 97,87 %
21.12.2017 22:56 8,5 C 8,3 C 7,2 C 100 % 15 lf 1033,1 hPa 0,0 l/m 0 min 0 min 0 W/m 6,8 km/h (2 Bft) 97,83 %
21.12.2017 22:58 8,5 C 8,3 C 7,2 C 100 % 15 lf 1033,2 hPa 0,0 l/m 0 min 0 min 0 W/m 6,8 km/h (2 Bft) 95,74 %
21.12.2017 23:00 8,5 C 8,3 C 7,2 C 100 % 15 lf 1033,1 hPa 0,0 l/m 0 min 0 min 0 W/m 9,0 km/h (2 Bft) 97,87 %
21.12.2017 23:02 8,5 C 8,3 C 7,2 C 100 % 15 lf 1033,1 hPa 0,0 l/m 0 min 0 min 0 W/m 6,8 km/h (2 Bft) 95,74 %
21.12.2017 23:04 8,5 C 8,3 C 7,2 C 100 % 15 lf 1033,1 hPa 0,0 l/m 0 min 0 min 0 W/m 6,8 km/h (2 Bft) 97,87 %
21.12.2017 23:06 8,5 C 8,3 C 7,2 C 100 % 15 lf 1033,1 hPa 0,0 l/m 0 min 0 min 0 W/m 4,5 km/h (1 Bft) 100,00 %
21.12.2017 23:08 8,5 C 8,3 C 7,2 C 100 % 15 lf 1033,1 hPa 0,0 l/m 0 min 0 min 0 W/m 4,5 km/h (1 Bft) 100,00 %
21.12.2017 23:10 8,5 C 8,3 C 7,2 C 100 % 15 lf 1033,2 hPa 0,0 l/m 0 min 0 min 0 W/m 4,5 km/h (1 Bft) 97,87 %
21.12.2017 23:12 8,5 C 8,3 C 7,2 C 100 % 15 lf 1033,1 hPa 0,0 l/m 0 min 0 min 0 W/m 4,5 km/h (1 Bft) 97,87 %
21.12.2017 23:14 8,5 C 8,3 C 7,2 C 100 % 15 lf 1033,1 hPa 0,0 l/m 0 min 0 min 0 W/m 4,5 km/h (1 Bft) 97,87 %
21.12.2017 23:16 8,5 C 8,3 C 7,2 C 100 % 15 lf 1033,2 hPa 0,0 l/m 0 min 0 min 0 W/m 4,5 km/h (1 Bft) 95,74 %
21.12.2017 23:18 8,5 C 8,3 C 7,2 C 100 % 15 lf 1033,2 hPa 0,0 l/m 0 min 0 min 0 W/m 4,5 km/h (1 Bft) 97,87 %
21.12.2017 23:20 8,5 C 8,3 C 7,2 C 100 % 15 lf 1033,2 hPa 0,0 l/m 0 min 0 min 0 W/m 6,8 km/h (2 Bft) 90,38 %
21.12.2017 23:22 8,5 C 8,3 C 7,2 C 100 % 15 lf 1033,2 hPa 0,0 l/m 0 min 0 min 0 W/m 2,3 km/h (1 Bft) 97,56 %
21.12.2017 23:24 8,5 C 8,3 C 7,2 C 100 % 15 lf 1033,1 hPa 0,0 l/m 0 min 0 min 0 W/m 2,3 km/h (1 Bft) 97,87 %
21.12.2017 23:26 8,5 C 8,3 C 7,2 C 100 % 15 lf 1033,1 hPa 0,0 l/m 0 min 0 min 0 W/m 4,5 km/h (1 Bft) 93,62 %
21.12.2017 23:28 8,5 C 8,3 C 7,2 C 100 % 15 lf 1033,1 hPa 0,0 l/m 0 min 0 min 0 W/m 6,8 km/h (2 Bft) 97,87 %
21.12.2017 23:30 8,5 C 8,3 C 7,2 C 100 % 15 lf 1033,1 hPa 0,0 l/m 0 min 0 min 0 W/m 4,5 km/h (1 Bft) 93,62 %
21.12.2017 23:32 8,5 C 8,3 C 7,2 C 100 % 15 lf 1033,1 hPa 0,0 l/m 0 min 0 min 0 W/m 4,5 km/h (1 Bft) 97,83 %
21.12.2017 23:34 8,5 C 8,3 C 7,2 C 100 % 15 lf 1033,1 hPa 0,0 l/m 0 min 0 min 0 W/m 4,5 km/h (1 Bft) 97,87 %
21.12.2017 23:36 8,5 C 8,3 C 7,2 C 100 % 15 lf 1033,1 hPa 0,0 l/m 0 min 0 min 0 W/m 4,5 km/h (1 Bft) 94,34 %
21.12.2017 23:38 8,5 C 8,3 C 7,2 C 100 % 15 lf 1033,1 hPa 0,0 l/m 0 min 0 min 0 W/m 4,5 km/h (1 Bft) 95,12 %
21.12.2017 23:40 8,5 C 8,3 C 7,2 C 100 % 15 lf 1033,1 hPa 0,0 l/m 0 min 0 min 0 W/m 4,5 km/h (1 Bft) 97,87 %
21.12.2017 23:42 8,5 C 8,3 C 7,2 C 100 % 15 lf 1033,1 hPa 0,0 l/m 0 min 0 min 0 W/m 2,3 km/h (1 Bft) 95,65 %
21.12.2017 23:44 8,5 C 8,3 C 7,2 C 100 % 15 lf 1033,1 hPa 0,0 l/m 0 min 0 min 0 W/m 2,3 km/h (1 Bft) 97,87 %
21.12.2017 23:46 8,5 C 8,3 C 7,2 C 100 % 15 lf 1033,1 hPa 0,0 l/m 0 min 0 min 0 W/m 4,5 km/h (1 Bft) 93,62 %
21.12.2017 23:48 8,5 C 8,3 C 7,2 C 100 % 15 lf 1033,1 hPa 0,0 l/m 0 min 0 min 0 W/m 4,5 km/h (1 Bft) 97,87 %
21.12.2017 23:50 8,5 C 8,3 C 7,2 C 100 % 15 lf 1033,1 hPa 0,0 l/m 0 min 0 min 0 W/m 4,5 km/h (1 Bft) 100,00 %
21.12.2017 23:52 8,5 C 8,3 C 7,2 C 100 % 15 lf 1033,2 hPa 0,0 l/m 0 min 0 min 0 W/m 4,5 km/h (1 Bft) 97,56 %
21.12.2017 23:54 8,5 C 8,3 C 7,2 C 100 % 15 lf 1033,2 hPa 0,0 l/m 0 min 0 min 0 W/m 4,5 km/h (1 Bft) 100,00 %
21.12.2017 23:56 8,5 C 8,3 C 7,2 C 100 % 15 lf 1033,1 hPa 0,0 l/m 0 min 0 min 0 W/m 4,5 km/h (1 Bft) 97,83 %
21.12.2017 23:58 8,5 C 8,3 C 7,2 C 100 % 15 lf 1033,1 hPa 0,0 l/m 0 min 0 min 0 W/m 4,5 km/h (1 Bft) 100,00 %
_ Min-Zeit 04:34 00:00 00:00 00:00 00:00 14:46 - - - - 04:36 08:36
Minimum _ 7,3 C 7,2 C 6,1 C 100 % 15 lf 1032,0 hPa - - - - 2,3 km/h (1 Bft) 82,98 %
_ Max-Zeit 14:56 13:22 11:40 00:00 00:00 20:34 04:36 00:00 00:28 11:44 10:00 00:02
Maximum _ 8,9 C 8,9 C 7,8 C 100 % 15 lf 1033,7 hPa 0,2 l/m 0 min 2 min 69 W/m 22,5 km/h
SW (4 Bft)
100,00 %
Durchschnitt _ 8,1 C 7,9 C 6,9 C 100 % 15 lf 1033,0 hPa #0,6 l/m #0 min. #54 min. 26 W/m 9,8 km/h (2 Bft) 96,06 %
© 2017 W. Hausmann